Time,TemperatureF,DewpointF,PressureIn,WindDirection,WindDirectionDegrees,WindSpeedMPH,WindSpeedGustMPH,Humidity,HourlyPrecipIn,Conditions,Clouds,dailyrainin,SoftwareType,DateUTC
2013-05-13 00:01:00,46.4,35.3,30.23,NW,321,0.0,9.0,65,0.00,,,0.00,Wunderground v.1.15,2013-05-13 04:01:00,
2013-05-13 00:02:00,46.3,35.2,30.23,NW,321,0.0,9.0,65,0.00,,,0.00,Wunderground v.1.15,2013-05-13 04:02:00,
2013-05-13 00:04:00,46.2,34.7,30.23,NW,321,0.0,9.0,64,0.00,,,0.00,Wunderground v.1.15,2013-05-13 04:04:00,
2013-05-13 00:05:00,46.2,34.7,30.23,NW,321,0.0,9.0,64,0.00,,,0.00,Wunderground v.1.15,2013-05-13 04:05:00,
2013-05-13 00:07:00,46.2,34.7,30.23,NW,321,0.0,9.0,64,0.00,,,0.00,Wunderground v.1.15,2013-05-13 04:07:00,
2013-05-13 00:09:00,46.2,34.7,30.23,NW,321,0.0,9.0,64,0.00,,,0.00,Wunderground v.1.15,2013-05-13 04:09:00,
2013-05-13 00:11:00,46.1,34.6,30.23,NW,321,0.0,9.0,64,0.00,,,0.00,Wunderground v.1.15,2013-05-13 04:11:00,
2013-05-13 00:12:00,46.2,34.7,30.23,NW,321,0.0,9.0,64,0.00,,,0.00,Wunderground v.1.15,2013-05-13 04:12:00,
2013-05-13 00:13:00,46.2,35.1,30.23,NW,321,0.0,9.0,65,0.00,,,0.00,Wunderground v.1.15,2013-05-13 04:13:00,
2013-05-13 00:18:00,46.1,35.0,30.23,NW,321,0.0,9.0,65,0.00,,,0.00,Wunderground v.1.15,2013-05-13 04:18:00,
2013-05-13 00:20:00,46.0,35.7,30.23,NW,321,0.0,9.0,67,0.00,,,0.00,Wunderground v.1.15,2013-05-13 04:20:00,
2013-05-13 00:22:00,45.9,37.0,30.23,NW,321,0.0,9.0,71,0.00,,,0.00,Wunderground v.1.15,2013-05-13 04:22:00,
2013-05-13 00:24:00,45.7,36.1,30.23,NW,321,0.0,9.0,69,0.00,,,0.00,Wunderground v.1.15,2013-05-13 04:24:00,
2013-05-13 00:26:00,45.5,35.2,30.23,NW,321,0.0,9.0,67,0.00,,,0.00,Wunderground v.1.15,2013-05-13 04:26:00,
2013-05-13 00:29:00,45.4,34.7,30.23,NW,321,0.0,9.0,66,0.00,,,0.00,Wunderground v.1.15,2013-05-13 04:29:00,
2013-05-13 00:32:00,45.5,34.8,30.23,NW,321,0.0,9.0,66,0.00,,,0.00,Wunderground v.1.15,2013-05-13 04:32:00,
2013-05-13 00:33:00,45.5,34.8,30.23,NW,321,0.0,9.0,66,0.00,,,0.00,Wunderground v.1.15,2013-05-13 04:33:00,
2013-05-13 00:34:00,45.5,34.8,30.23,NW,321,0.0,9.0,66,0.00,,,0.00,Wunderground v.1.15,2013-05-13 04:34:00,
2013-05-13 00:38:00,45.6,34.9,30.23,NW,321,0.0,9.0,66,0.00,,,0.00,Wunderground v.1.15,2013-05-13 04:38:00,
2013-05-13 00:39:00,45.6,34.5,30.23,NW,321,0.0,9.0,65,0.00,,,0.00,Wunderground v.1.15,2013-05-13 04:39:00,
2013-05-13 00:40:00,45.7,35.4,30.23,NNW,342,0.0,9.0,67,0.00,,,0.00,Wunderground v.1.15,2013-05-13 04:40:00,
2013-05-13 00:41:00,45.8,35.5,30.23,NW,323,0.0,9.0,67,0.00,,,0.00,Wunderground v.1.15,2013-05-13 04:41:00,
2013-05-13 00:43:00,45.9,35.2,30.23,NW,323,0.0,9.0,66,0.00,,,0.00,Wunderground v.1.15,2013-05-13 04:43:00,
2013-05-13 00:44:00,45.9,34.4,30.23,North,360,0.0,9.0,64,0.00,,,0.00,Wunderground v.1.15,2013-05-13 04:44:00,
2013-05-13 00:48:00,46.0,34.9,30.23,NNW,338,0.0,9.0,65,0.00,,,0.00,Wunderground v.1.15,2013-05-13 04:48:00,
2013-05-13 00:49:00,46.0,34.9,30.23,NNW,338,0.0,9.0,65,0.00,,,0.00,Wunderground v.1.15,2013-05-13 04:49:00,
2013-05-13 00:50:00,46.0,34.5,30.23,NW,316,0.0,9.0,64,0.00,,,0.00,Wunderground v.1.15,2013-05-13 04:50:00,
2013-05-13 00:52:00,46.1,34.6,30.23,NW,316,0.0,9.0,64,0.00,,,0.00,Wunderground v.1.15,2013-05-13 04:52:00,
2013-05-13 00:53:00,46.1,34.6,30.23,NW,316,0.0,9.0,64,0.00,,,0.00,Wunderground v.1.15,2013-05-13 04:53:00,
2013-05-13 00:55:00,46.1,34.6,30.23,NW,316,0.0,9.0,64,0.00,,,0.00,Wunderground v.1.15,2013-05-13 04:55:00,
2013-05-13 00:56:00,46.1,34.6,30.23,NW,316,0.0,9.0,64,0.00,,,0.00,Wunderground v.1.15,2013-05-13 04:56:00,
2013-05-13 01:01:00,46.0,35.7,30.23,NW,316,0.0,9.0,67,0.00,,,0.00,Wunderground v.1.15,2013-05-13 05:01:00,
2013-05-13 01:05:00,45.8,34.7,30.22,NW,316,0.0,9.0,65,0.00,,,0.00,Wunderground v.1.15,2013-05-13 05:05:00,
2013-05-13 01:09:00,45.7,34.6,30.22,NW,316,0.0,9.0,65,0.00,,,0.00,Wunderground v.1.15,2013-05-13 05:09:00,
2013-05-13 01:12:00,45.6,34.9,30.22,NW,316,0.0,9.0,66,0.00,,,0.00,Wunderground v.1.15,2013-05-13 05:12:00,
2013-05-13 01:14:00,45.6,34.5,30.22,NW,316,0.0,9.0,65,0.00,,,0.00,Wunderground v.1.15,2013-05-13 05:14:00,
2013-05-13 01:15:00,45.6,34.5,30.22,NW,316,0.0,9.0,65,0.00,,,0.00,Wunderground v.1.15,2013-05-13 05:15:00,
2013-05-13 01:17:00,45.6,34.5,30.22,NW,321,0.0,9.0,65,0.00,,,0.00,Wunderground v.1.15,2013-05-13 05:17:00,
2013-05-13 01:18:00,45.5,34.4,30.22,NW,321,0.0,9.0,65,0.00,,,0.00,Wunderground v.1.15,2013-05-13 05:18:00,
2013-05-13 01:23:00,45.5,35.5,30.22,NW,321,0.0,9.0,68,0.00,,,0.00,Wunderground v.1.15,2013-05-13 05:23:00,
2013-05-13 01:24:00,45.5,35.5,30.22,NW,321,0.0,9.0,68,0.00,,,0.00,Wunderground v.1.15,2013-05-13 05:24:00,
2013-05-13 01:29:00,44.9,36.8,30.23,NW,321,0.0,9.0,73,0.00,,,0.00,Wunderground v.1.15,2013-05-13 05:29:00,
2013-05-13 01:30:00,44.7,35.5,30.22,NW,321,0.0,9.0,70,0.00,,,0.00,Wunderground v.1.15,2013-05-13 05:30:00,
2013-05-13 01:35:00,44.7,34.8,30.23,NW,321,0.0,9.0,68,0.00,,,0.00,Wunderground v.1.15,2013-05-13 05:35:00,
2013-05-13 01:36:00,44.7,34.8,30.23,NW,321,0.0,9.0,68,0.00,,,0.00,Wunderground v.1.15,2013-05-13 05:36:00,
2013-05-13 01:37:00,44.8,34.9,30.22,NW,321,0.0,9.0,68,0.00,,,0.00,Wunderground v.1.15,2013-05-13 05:37:00,
2013-05-13 01:40:00,44.9,34.6,30.23,NW,321,0.0,9.0,67,0.00,,,0.00,Wunderground v.1.15,2013-05-13 05:40:00,
2013-05-13 01:41:00,44.9,34.6,30.22,NW,321,0.0,9.0,67,0.00,,,0.00,Wunderground v.1.15,2013-05-13 05:41:00,
2013-05-13 01:44:00,45.0,36.5,30.23,NW,321,0.0,9.0,72,0.00,,,0.00,Wunderground v.1.15,2013-05-13 05:44:00,
2013-05-13 01:47:00,44.9,35.0,30.22,NW,321,0.0,9.0,68,0.00,,,0.00,Wunderground v.1.15,2013-05-13 05:47:00,
2013-05-13 01:49:00,44.9,34.6,30.22,NW,321,0.0,9.0,67,0.00,,,0.00,Wunderground v.1.15,2013-05-13 05:49:00,
2013-05-13 01:52:00,45.1,34.8,30.22,NW,321,0.0,9.0,67,0.00,,,0.00,Wunderground v.1.15,2013-05-13 05:52:00,
2013-05-13 01:53:00,45.1,35.2,30.22,NNW,347,0.0,9.0,68,0.00,,,0.00,Wunderground v.1.15,2013-05-13 05:53:00,
2013-05-13 01:55:00,45.1,35.2,30.22,NNW,344,0.0,9.0,68,0.00,,,0.00,Wunderground v.1.15,2013-05-13 05:55:00,
2013-05-13 01:58:00,45.2,35.6,30.23,NNW,344,0.0,9.0,69,0.00,,,0.00,Wunderground v.1.15,2013-05-13 05:58:00,
2013-05-13 01:59:00,45.2,35.6,30.22,NNW,344,0.0,9.0,69,0.00,,,0.00,Wunderground v.1.15,2013-05-13 05:59:00,
2013-05-13 02:02:00,45.1,35.5,30.22,NNW,344,0.0,9.0,69,0.00,,,0.00,Wunderground v.1.15,2013-05-13 06:02:00,
2013-05-13 02:03:00,45.1,35.5,30.22,NNW,344,0.0,9.0,69,0.00,,,0.00,Wunderground v.1.15,2013-05-13 06:03:00,
2013-05-13 02:05:00,45.0,35.1,30.22,NNW,344,0.0,9.0,68,0.00,,,0.00,Wunderground v.1.15,2013-05-13 06:05:00,
2013-05-13 02:08:00,45.0,34.7,30.22,NNW,344,0.0,9.0,67,0.00,,,0.00,Wunderground v.1.15,2013-05-13 06:08:00,
2013-05-13 02:10:00,45.0,34.7,30.22,NNW,344,0.0,9.0,67,0.00,,,0.00,Wunderground v.1.15,2013-05-13 06:10:00,
2013-05-13 02:12:00,45.0,35.1,30.22,NNW,344,0.0,9.0,68,0.00,,,0.00,Wunderground v.1.15,2013-05-13 06:12:00,
2013-05-13 02:13:00,44.9,35.0,30.22,NNW,344,0.0,9.0,68,0.00,,,0.00,Wunderground v.1.15,2013-05-13 06:13:00,
2013-05-13 02:14:00,44.9,35.0,30.22,NNW,344,0.0,9.0,68,0.00,,,0.00,Wunderground v.1.15,2013-05-13 06:14:00,
2013-05-13 02:17:00,44.9,34.6,30.22,NNE,13,0.0,9.0,67,0.00,,,0.00,Wunderground v.1.15,2013-05-13 06:17:00,
2013-05-13 02:18:00,44.9,34.6,30.22,NNE,13,0.0,9.0,67,0.00,,,0.00,Wunderground v.1.15,2013-05-13 06:18:00,
2013-05-13 02:20:00,44.9,34.6,30.22,NNE,13,0.0,9.0,67,0.00,,,0.00,Wunderground v.1.15,2013-05-13 06:20:00,
2013-05-13 02:22:00,44.9,34.6,30.22,North,5,0.0,9.0,67,0.00,,,0.00,Wunderground v.1.15,2013-05-13 06:22:00,
2013-05-13 02:23:00,44.9,34.6,30.22,North,5,0.0,9.0,67,0.00,,,0.00,Wunderground v.1.15,2013-05-13 06:23:00,
2013-05-13 02:24:00,44.9,35.7,30.22,North,5,0.0,9.0,70,0.00,,,0.00,Wunderground v.1.15,2013-05-13 06:24:00,
2013-05-13 02:26:00,44.9,36.8,30.22,North,5,0.0,9.0,73,0.00,,,0.00,Wunderground v.1.15,2013-05-13 06:26:00,
2013-05-13 02:29:00,44.8,35.2,30.22,North,5,0.0,9.0,69,0.00,,,0.00,Wunderground v.1.15,2013-05-13 06:29:00,
2013-05-13 02:31:00,44.6,34.7,30.22,North,5,0.0,9.0,68,0.00,,,0.00,Wunderground v.1.15,2013-05-13 06:31:00,
2013-05-13 02:32:00,44.6,34.7,30.22,North,5,0.0,9.0,68,0.00,,,0.00,Wunderground v.1.15,2013-05-13 06:32:00,
2013-05-13 02:33:00,44.6,34.7,30.22,North,5,0.0,9.0,68,0.00,,,0.00,Wunderground v.1.15,2013-05-13 06:33:00,
2013-05-13 02:35:00,44.5,34.6,30.22,North,5,0.0,9.0,68,0.00,,,0.00,Wunderground v.1.15,2013-05-13 06:35:00,
2013-05-13 02:38:00,44.3,34.4,30.22,North,5,0.0,9.0,68,0.00,,,0.00,Wunderground v.1.15,2013-05-13 06:38:00,
2013-05-13 02:40:00,44.3,34.8,30.22,North,5,0.0,9.0,69,0.00,,,0.00,Wunderground v.1.15,2013-05-13 06:40:00,
2013-05-13 02:41:00,44.3,34.4,30.22,North,5,0.0,9.0,68,0.00,,,0.00,Wunderground v.1.15,2013-05-13 06:41:00,
2013-05-13 02:43:00,44.2,34.3,30.22,North,5,0.0,9.0,68,0.00,,,0.00,Wunderground v.1.15,2013-05-13 06:43:00,
2013-05-13 02:45:00,44.2,34.3,30.22,North,5,0.0,9.0,68,0.00,,,0.00,Wunderground v.1.15,2013-05-13 06:45:00,
2013-05-13 02:46:00,44.2,34.3,30.22,North,5,0.0,9.0,68,0.00,,,0.00,Wunderground v.1.15,2013-05-13 06:46:00,
2013-05-13 02:49:00,44.1,34.6,30.22,North,5,0.0,9.0,69,0.00,,,0.00,Wunderground v.1.15,2013-05-13 06:49:00,
2013-05-13 02:51:00,44.0,35.2,30.22,North,5,0.0,9.0,71,0.00,,,0.00,Wunderground v.1.15,2013-05-13 06:51:00,
2013-05-13 02:52:00,44.0,35.6,30.22,North,5,0.0,9.0,72,0.00,,,0.00,Wunderground v.1.15,2013-05-13 06:52:00,
2013-05-13 02:53:00,44.0,35.2,30.22,North,5,0.0,9.0,71,0.00,,,0.00,Wunderground v.1.15,2013-05-13 06:53:00,
2013-05-13 02:55:00,43.8,34.6,30.22,North,5,0.0,9.0,70,0.00,,,0.00,Wunderground v.1.15,2013-05-13 06:55:00,
2013-05-13 02:57:00,43.8,34.6,30.22,North,5,0.0,9.0,70,0.00,,,0.00,Wunderground v.1.15,2013-05-13 06:57:00,
2013-05-13 02:59:00,43.7,34.6,30.22,North,5,0.0,9.0,70,0.00,,,0.00,Wunderground v.1.15,2013-05-13 06:59:00,
2013-05-13 03:01:00,43.6,34.5,30.22,North,5,0.0,9.0,70,0.00,,,0.00,Wunderground v.1.15,2013-05-13 07:01:00,
2013-05-13 03:04:00,43.5,34.4,30.22,North,5,0.0,9.0,70,0.00,,,0.00,Wunderground v.1.15,2013-05-13 07:04:00,
2013-05-13 03:08:00,43.3,34.2,30.21,North,5,0.0,9.0,70,0.00,,,0.00,Wunderground v.1.15,2013-05-13 07:08:00,
2013-05-13 03:09:00,43.2,34.1,30.22,North,5,0.0,9.0,70,0.00,,,0.00,Wunderground v.1.15,2013-05-13 07:09:00,
2013-05-13 03:11:00,43.1,34.0,30.22,North,5,0.0,9.0,70,0.00,,,0.00,Wunderground v.1.15,2013-05-13 07:11:00,
2013-05-13 03:12:00,43.1,34.3,30.22,North,5,0.0,9.0,71,0.00,,,0.00,Wunderground v.1.15,2013-05-13 07:12:00,
2013-05-13 03:14:00,43.1,34.3,30.22,North,5,0.0,9.0,71,0.00,,,0.00,Wunderground v.1.15,2013-05-13 07:14:00,
2013-05-13 03:17:00,42.9,34.1,30.22,North,5,0.0,9.0,71,0.00,,,0.00,Wunderground v.1.15,2013-05-13 07:17:00,
2013-05-13 03:18:00,42.9,34.1,30.22,North,5,0.0,9.0,71,0.00,,,0.00,Wunderground v.1.15,2013-05-13 07:18:00,
2013-05-13 03:20:00,42.8,34.0,30.22,North,5,0.0,9.0,71,0.00,,,0.00,Wunderground v.1.15,2013-05-13 07:20:00,
2013-05-13 03:23:00,42.7,34.3,30.22,North,5,0.0,9.0,72,0.00,,,0.00,Wunderground v.1.15,2013-05-13 07:23:00,
2013-05-13 03:26:00,42.6,34.2,30.21,North,5,0.0,9.0,72,0.00,,,0.00,Wunderground v.1.15,2013-05-13 07:26:00,
2013-05-13 03:27:00,42.6,34.2,30.21,North,5,0.0,9.0,72,0.00,,,0.00,Wunderground v.1.15,2013-05-13 07:27:00,
2013-05-13 03:30:00,42.5,34.1,30.21,North,5,0.0,9.0,72,0.00,,,0.00,Wunderground v.1.15,2013-05-13 07:30:00,
2013-05-13 03:31:00,42.5,34.1,30.21,North,5,0.0,9.0,72,0.00,,,0.00,Wunderground v.1.15,2013-05-13 07:31:00,
2013-05-13 03:32:00,42.5,34.1,30.21,North,5,0.0,9.0,72,0.00,,,0.00,Wunderground v.1.15,2013-05-13 07:32:00,
2013-05-13 03:34:00,42.4,34.0,30.21,North,5,0.0,9.0,72,0.00,,,0.00,Wunderground v.1.15,2013-05-13 07:34:00,
2013-05-13 03:38:00,42.3,33.9,30.21,North,5,0.0,9.0,72,0.00,,,0.00,Wunderground v.1.15,2013-05-13 07:38:00,
2013-05-13 03:41:00,42.2,34.8,30.22,North,5,0.0,9.0,75,0.00,,,0.00,Wunderground v.1.15,2013-05-13 07:41:00,
2013-05-13 03:42:00,42.1,34.7,30.21,North,5,0.0,9.0,75,0.00,,,0.00,Wunderground v.1.15,2013-05-13 07:42:00,
2013-05-13 03:43:00,42.0,34.6,30.21,North,5,0.0,9.0,75,0.00,,,0.00,Wunderground v.1.15,2013-05-13 07:43:00,
2013-05-13 03:47:00,42.0,35.0,30.21,North,5,0.0,9.0,76,0.00,,,0.00,Wunderground v.1.15,2013-05-13 07:47:00,
2013-05-13 03:49:00,41.9,35.2,30.21,North,5,0.0,9.0,77,0.00,,,0.00,Wunderground v.1.15,2013-05-13 07:49:00,
2013-05-13 03:50:00,41.9,35.2,30.21,North,5,0.0,9.0,77,0.00,,,0.00,Wunderground v.1.15,2013-05-13 07:50:00,
2013-05-13 03:51:00,41.9,35.2,30.21,North,5,0.0,9.0,77,0.00,,,0.00,Wunderground v.1.15,2013-05-13 07:51:00,
2013-05-13 03:52:00,41.8,34.8,30.21,North,5,0.0,9.0,76,0.00,,,0.00,Wunderground v.1.15,2013-05-13 07:52:00,
2013-05-13 03:53:00,41.7,34.7,30.21,North,5,0.0,9.0,76,0.00,,,0.00,Wunderground v.1.15,2013-05-13 07:53:00,
2013-05-13 03:56:00,41.6,34.6,30.22,North,5,0.0,9.0,76,0.00,,,0.00,Wunderground v.1.15,2013-05-13 07:56:00,
2013-05-13 03:58:00,41.6,34.6,30.22,North,5,0.0,9.0,76,0.00,,,0.00,Wunderground v.1.15,2013-05-13 07:58:00,
2013-05-13 04:01:00,41.5,34.5,30.22,North,5,0.0,9.0,76,0.00,,,0.00,Wunderground v.1.15,2013-05-13 08:01:00,
2013-05-13 04:02:00,41.5,34.5,30.22,North,5,0.0,9.0,76,0.00,,,0.00,Wunderground v.1.15,2013-05-13 08:02:00,
2013-05-13 04:07:00,41.4,34.4,30.22,North,5,0.0,9.0,76,0.00,,,0.00,Wunderground v.1.15,2013-05-13 08:07:00,
2013-05-13 04:08:00,41.4,34.4,30.22,North,5,0.0,9.0,76,0.00,,,0.00,Wunderground v.1.15,2013-05-13 08:08:00,
2013-05-13 04:10:00,41.4,34.7,30.22,North,5,0.0,9.0,77,0.00,,,0.00,Wunderground v.1.15,2013-05-13 08:10:00,
2013-05-13 04:13:00,41.3,34.6,30.22,North,5,0.0,9.0,77,0.00,,,0.00,Wunderground v.1.15,2013-05-13 08:13:00,
2013-05-13 04:14:00,41.3,34.6,30.22,North,5,0.0,9.0,77,0.00,,,0.00,Wunderground v.1.15,2013-05-13 08:14:00,
2013-05-13 04:16:00,41.2,34.9,30.22,North,5,0.0,9.0,78,0.00,,,0.00,Wunderground v.1.15,2013-05-13 08:16:00,
2013-05-13 04:17:00,41.2,35.2,30.22,North,5,0.0,9.0,79,0.00,,,0.00,Wunderground v.1.15,2013-05-13 08:17:00,
2013-05-13 04:18:00,41.1,35.1,30.22,North,5,0.0,9.0,79,0.00,,,0.00,Wunderground v.1.15,2013-05-13 08:18:00,
2013-05-13 04:19:00,41.1,35.1,30.22,North,5,0.0,9.0,79,0.00,,,0.00,Wunderground v.1.15,2013-05-13 08:19:00,
2013-05-13 04:21:00,41.0,35.3,30.22,North,5,0.0,9.0,80,0.00,,,0.00,Wunderground v.1.15,2013-05-13 08:21:00,
2013-05-13 04:22:00,41.0,35.3,30.22,West,277,0.0,9.0,80,0.00,,,0.00,Wunderground v.1.15,2013-05-13 08:22:00,
2013-05-13 04:26:00,40.7,35.0,30.22,West,277,0.0,9.0,80,0.00,,,0.00,Wunderground v.1.15,2013-05-13 08:26:00,
2013-05-13 04:28:00,40.7,35.3,30.22,West,274,0.0,9.0,81,0.00,,,0.00,Wunderground v.1.15,2013-05-13 08:28:00,
2013-05-13 04:30:00,40.6,35.2,30.22,West,274,0.0,9.0,81,0.00,,,0.00,Wunderground v.1.15,2013-05-13 08:30:00,
2013-05-13 04:34:00,40.6,34.9,30.22,West,274,0.0,9.0,80,0.00,,,0.00,Wunderground v.1.15,2013-05-13 08:34:00,
2013-05-13 04:35:00,40.6,34.9,30.22,West,275,0.0,9.0,80,0.00,,,0.00,Wunderground v.1.15,2013-05-13 08:35:00,
2013-05-13 04:36:00,40.6,34.9,30.22,West,275,0.0,9.0,80,0.00,,,0.00,Wunderground v.1.15,2013-05-13 08:36:00,
2013-05-13 04:37:00,40.7,35.0,30.22,West,274,0.0,9.0,80,0.00,,,0.00,Wunderground v.1.15,2013-05-13 08:37:00,
2013-05-13 04:40:00,40.7,35.0,30.22,West,274,0.0,9.0,80,0.00,,,0.00,Wunderground v.1.15,2013-05-13 08:40:00,
2013-05-13 04:41:00,40.7,35.0,30.22,West,274,0.0,9.0,80,0.00,,,0.00,Wunderground v.1.15,2013-05-13 08:41:00,
2013-05-13 04:42:00,40.7,35.3,30.22,West,274,0.0,9.0,81,0.00,,,0.00,Wunderground v.1.15,2013-05-13 08:42:00,
2013-05-13 04:46:00,40.4,35.3,30.22,West,274,0.0,9.0,82,0.00,,,0.00,Wunderground v.1.15,2013-05-13 08:46:00,
2013-05-13 04:47:00,40.4,35.3,30.22,West,274,0.0,9.0,82,0.00,,,0.00,Wunderground v.1.15,2013-05-13 08:47:00,
2013-05-13 04:49:00,40.2,35.1,30.22,West,274,0.0,9.0,82,0.00,,,0.00,Wunderground v.1.15,2013-05-13 08:49:00,
2013-05-13 04:52:00,40.0,35.3,30.22,West,274,0.0,9.0,83,0.00,,,0.00,Wunderground v.1.15,2013-05-13 08:52:00,
2013-05-13 04:53:00,39.9,35.2,30.22,West,274,0.0,9.0,83,0.00,,,0.00,Wunderground v.1.15,2013-05-13 08:53:00,
2013-05-13 04:55:00,39.8,35.1,30.22,West,274,0.0,9.0,83,0.00,,,0.00,Wunderground v.1.15,2013-05-13 08:55:00,
2013-05-13 04:57:00,39.7,35.3,30.22,WSW,248,0.0,9.0,84,0.00,,,0.00,Wunderground v.1.15,2013-05-13 08:57:00,
2013-05-13 04:59:00,39.6,35.2,30.22,WSW,248,0.0,9.0,84,0.00,,,0.00,Wunderground v.1.15,2013-05-13 08:59:00,
2013-05-13 05:01:00,39.6,35.2,30.22,WSW,248,0.0,9.0,84,0.00,,,0.00,Wunderground v.1.15,2013-05-13 09:01:00,
2013-05-13 05:02:00,39.5,35.1,30.22,WSW,248,0.0,9.0,84,0.00,,,0.00,Wunderground v.1.15,2013-05-13 09:02:00,
2013-05-13 05:03:00,39.3,35.2,30.22,WSW,248,0.0,9.0,85,0.00,,,0.00,Wunderground v.1.15,2013-05-13 09:03:00,
2013-05-13 05:05:00,39.2,35.1,30.22,SSW,202,0.0,9.0,85,0.00,,,0.00,Wunderground v.1.15,2013-05-13 09:05:00,
2013-05-13 05:07:00,39.2,35.4,30.22,SSW,202,0.0,9.0,86,0.00,,,0.00,Wunderground v.1.15,2013-05-13 09:07:00,
2013-05-13 05:08:00,39.1,35.3,30.22,SSW,202,0.0,9.0,86,0.00,,,0.00,Wunderground v.1.15,2013-05-13 09:08:00,
2013-05-13 05:10:00,39.1,35.3,30.23,SSW,202,0.0,9.0,86,0.00,,,0.00,Wunderground v.1.15,2013-05-13 09:10:00,
2013-05-13 05:12:00,39.1,35.6,30.22,SSW,202,0.0,9.0,87,0.00,,,0.00,Wunderground v.1.15,2013-05-13 09:12:00,
2013-05-13 05:14:00,39.0,35.5,30.22,SSW,202,0.0,9.0,87,0.00,,,0.00,Wunderground v.1.15,2013-05-13 09:14:00,
2013-05-13 05:17:00,39.0,35.5,30.22,SSW,202,0.0,9.0,87,0.00,,,0.00,Wunderground v.1.15,2013-05-13 09:17:00,
2013-05-13 05:19:00,38.9,35.4,30.22,SSW,202,0.0,9.0,87,0.00,,,0.00,Wunderground v.1.15,2013-05-13 09:19:00,
2013-05-13 05:20:00,38.9,35.6,30.22,SSW,202,0.0,9.0,88,0.00,,,0.00,Wunderground v.1.15,2013-05-13 09:20:00,
2013-05-13 05:21:00,38.8,35.6,30.22,SSW,202,0.0,9.0,88,0.00,,,0.00,Wunderground v.1.15,2013-05-13 09:21:00,
2013-05-13 05:26:00,38.6,35.4,30.23,SSW,202,0.0,9.0,88,0.00,,,0.00,Wunderground v.1.15,2013-05-13 09:26:00,
2013-05-13 05:27:00,38.5,35.5,30.23,SSW,202,0.0,9.0,89,0.00,,,0.00,Wunderground v.1.15,2013-05-13 09:27:00,
2013-05-13 05:30:00,38.4,35.4,30.23,SSW,202,0.0,9.0,89,0.00,,,0.00,Wunderground v.1.15,2013-05-13 09:30:00,
2013-05-13 05:31:00,38.4,35.4,30.22,SSW,202,0.0,9.0,89,0.00,,,0.00,Wunderground v.1.15,2013-05-13 09:31:00,
2013-05-13 05:32:00,38.4,35.4,30.22,SSW,202,0.0,9.0,89,0.00,,,0.00,Wunderground v.1.15,2013-05-13 09:32:00,
2013-05-13 05:33:00,38.4,35.4,30.23,SSW,202,0.0,9.0,89,0.00,,,0.00,Wunderground v.1.15,2013-05-13 09:33:00,
2013-05-13 05:37:00,38.4,35.4,30.22,SSW,202,0.0,9.0,89,0.00,,,0.00,Wunderground v.1.15,2013-05-13 09:37:00,
2013-05-13 05:38:00,38.4,35.4,30.23,SSW,202,0.0,9.0,89,0.00,,,0.00,Wunderground v.1.15,2013-05-13 09:38:00,
2013-05-13 05:39:00,38.4,35.4,30.22,SSW,202,0.0,9.0,89,0.00,,,0.00,Wunderground v.1.15,2013-05-13 09:39:00,
2013-05-13 05:40:00,38.4,35.4,30.23,SSW,202,0.0,9.0,89,0.00,,,0.00,Wunderground v.1.15,2013-05-13 09:40:00,
2013-05-13 05:42:00,38.4,35.4,30.23,SSW,202,0.0,9.0,89,0.00,,,0.00,Wunderground v.1.15,2013-05-13 09:42:00,
2013-05-13 05:44:00,38.4,35.4,30.23,SSW,202,0.0,9.0,89,0.00,,,0.00,Wunderground v.1.15,2013-05-13 09:44:00,
2013-05-13 05:46:00,38.4,35.2,30.23,SSW,202,0.0,9.0,88,0.00,,,0.00,Wunderground v.1.15,2013-05-13 09:46:00,
2013-05-13 05:48:00,38.3,35.1,30.22,SSW,202,0.0,9.0,88,0.00,,,0.00,Wunderground v.1.15,2013-05-13 09:48:00,
2013-05-13 05:49:00,38.3,35.1,30.22,SSW,202,0.0,9.0,88,0.00,,,0.00,Wunderground v.1.15,2013-05-13 09:49:00,
2013-05-13 05:50:00,38.3,35.1,30.22,SSW,202,0.0,9.0,88,0.00,,,0.00,Wunderground v.1.15,2013-05-13 09:50:00,
2013-05-13 05:51:00,38.2,35.0,30.22,SSW,202,0.0,9.0,88,0.00,,,0.00,Wunderground v.1.15,2013-05-13 09:51:00,
2013-05-13 05:52:00,38.2,35.0,30.23,SSW,202,0.0,9.0,88,0.00,,,0.00,Wunderground v.1.15,2013-05-13 09:52:00,
2013-05-13 05:56:00,38.1,34.9,30.23,SSW,202,0.0,9.0,88,0.00,,,0.00,Wunderground v.1.15,2013-05-13 09:56:00,
2013-05-13 05:59:00,38.0,34.8,30.23,SSW,202,0.0,9.0,88,0.00,,,0.00,Wunderground v.1.15,2013-05-13 09:59:00,
2013-05-13 06:01:00,38.0,35.0,30.23,SSW,202,0.0,9.0,89,0.00,,,0.00,Wunderground v.1.15,2013-05-13 10:01:00,
2013-05-13 06:02:00,37.9,34.9,30.23,SSW,202,0.0,9.0,89,0.00,,,0.00,Wunderground v.1.15,2013-05-13 10:02:00,
2013-05-13 06:06:00,37.8,34.8,30.23,SSW,202,0.0,9.0,89,0.00,,,0.00,Wunderground v.1.15,2013-05-13 10:06:00,
2013-05-13 06:08:00,37.8,34.8,30.23,SSW,202,0.0,9.0,89,0.00,,,0.00,Wunderground v.1.15,2013-05-13 10:08:00,
2013-05-13 06:10:00,37.7,34.8,30.23,SSW,202,0.0,9.0,89,0.00,,,0.00,Wunderground v.1.15,2013-05-13 10:10:00,
2013-05-13 06:12:00,37.6,34.7,30.23,SSW,202,0.0,9.0,89,0.00,,,0.00,Wunderground v.1.15,2013-05-13 10:12:00,
2013-05-13 06:13:00,37.6,34.7,30.23,SSW,202,0.0,9.0,89,0.00,,,0.00,Wunderground v.1.15,2013-05-13 10:13:00,
2013-05-13 06:14:00,37.6,34.7,30.23,SSW,202,0.0,9.0,89,0.00,,,0.00,Wunderground v.1.15,2013-05-13 10:14:00,
2013-05-13 06:15:00,37.6,34.7,30.23,SSW,202,0.0,9.0,89,0.00,,,0.00,Wunderground v.1.15,2013-05-13 10:15:00,
2013-05-13 06:18:00,37.5,34.6,30.23,SSW,202,0.0,9.0,89,0.00,,,0.00,Wunderground v.1.15,2013-05-13 10:18:00,
2013-05-13 06:21:00,37.4,34.5,30.23,SSW,202,0.0,9.0,89,0.00,,,0.00,Wunderground v.1.15,2013-05-13 10:21:00,
2013-05-13 06:22:00,37.4,34.5,30.23,SSW,202,0.0,9.0,89,0.00,,,0.00,Wunderground v.1.15,2013-05-13 10:22:00,
2013-05-13 06:23:00,37.4,34.5,30.23,SSW,202,0.0,9.0,89,0.00,,,0.00,Wunderground v.1.15,2013-05-13 10:23:00,
2013-05-13 06:24:00,37.4,34.5,30.23,SSW,202,0.0,9.0,89,0.00,,,0.00,Wunderground v.1.15,2013-05-13 10:24:00,
2013-05-13 06:25:00,37.4,34.5,30.23,SSW,202,0.0,9.0,89,0.00,,,0.00,Wunderground v.1.15,2013-05-13 10:25:00,
2013-05-13 06:28:00,37.3,34.6,30.23,SSW,202,0.0,9.0,90,0.00,,,0.00,Wunderground v.1.15,2013-05-13 10:28:00,
2013-05-13 06:31:00,37.3,34.6,30.23,SSW,202,0.0,9.0,90,0.00,,,0.00,Wunderground v.1.15,2013-05-13 10:31:00,
2013-05-13 06:32:00,37.3,34.6,30.23,SSW,202,0.0,9.0,90,0.00,,,0.00,Wunderground v.1.15,2013-05-13 10:32:00,
2013-05-13 06:34:00,37.3,34.6,30.24,SSW,202,0.0,9.0,90,0.00,,,0.00,Wunderground v.1.15,2013-05-13 10:34:00,
2013-05-13 06:36:00,37.3,34.6,30.24,SSW,202,0.0,9.0,90,0.00,,,0.00,Wunderground v.1.15,2013-05-13 10:36:00,
2013-05-13 06:40:00,37.2,34.5,30.24,SSW,202,0.0,9.0,90,0.00,,,0.00,Wunderground v.1.15,2013-05-13 10:40:00,
2013-05-13 06:41:00,37.2,34.5,30.24,SSW,202,0.0,9.0,90,0.00,,,0.00,Wunderground v.1.15,2013-05-13 10:41:00,
2013-05-13 06:42:00,37.2,34.5,30.24,SSW,202,0.0,9.0,90,0.00,,,0.00,Wunderground v.1.15,2013-05-13 10:42:00,
2013-05-13 06:45:00,37.1,34.7,30.24,SSW,202,0.0,9.0,91,0.00,,,0.00,Wunderground v.1.15,2013-05-13 10:45:00,
2013-05-13 06:47:00,37.1,34.7,30.24,SSW,202,0.0,9.0,91,0.00,,,0.00,Wunderground v.1.15,2013-05-13 10:47:00,
2013-05-13 06:48:00,37.1,34.7,30.24,SSW,202,0.0,9.0,91,0.00,,,0.00,Wunderground v.1.15,2013-05-13 10:48:00,
2013-05-13 06:51:00,37.0,34.6,30.24,SSW,202,0.0,9.0,91,0.00,,,0.00,Wunderground v.1.15,2013-05-13 10:51:00,
2013-05-13 06:53:00,36.9,34.5,30.24,SSW,202,0.0,9.0,91,0.00,,,0.00,Wunderground v.1.15,2013-05-13 10:53:00,
2013-05-13 06:54:00,36.9,34.5,30.24,SSW,202,0.0,9.0,91,0.00,,,0.00,Wunderground v.1.15,2013-05-13 10:54:00,
2013-05-13 06:56:00,36.9,34.5,30.24,SSW,202,0.0,9.0,91,0.00,,,0.00,Wunderground v.1.15,2013-05-13 10:56:00,
2013-05-13 06:57:00,36.9,34.5,30.24,SSW,202,0.0,9.0,91,0.00,,,0.00,Wunderground v.1.15,2013-05-13 10:57:00,
2013-05-13 07:01:00,36.9,34.5,30.24,SSW,202,0.0,9.0,91,0.00,,,0.00,Wunderground v.1.15,2013-05-13 11:01:00,
2013-05-13 07:02:00,37.0,34.6,30.24,SSW,202,0.0,9.0,91,0.00,,,0.00,Wunderground v.1.15,2013-05-13 11:02:00,
2013-05-13 07:05:00,37.0,34.6,30.25,SSW,202,0.0,9.0,91,0.00,,,0.00,Wunderground v.1.15,2013-05-13 11:05:00,
2013-05-13 07:07:00,37.0,34.6,30.25,SSW,202,0.0,9.0,91,0.00,,,0.00,Wunderground v.1.15,2013-05-13 11:07:00,
2013-05-13 07:10:00,37.1,34.7,30.25,SSW,202,0.0,9.0,91,0.00,,,0.00,Wunderground v.1.15,2013-05-13 11:10:00,
2013-05-13 07:13:00,37.1,34.7,30.25,SSW,202,0.0,9.0,91,0.00,,,0.00,Wunderground v.1.15,2013-05-13 11:13:00,
2013-05-13 07:14:00,37.1,34.7,30.25,SSW,202,0.0,9.0,91,0.00,,,0.00,Wunderground v.1.15,2013-05-13 11:14:00,
2013-05-13 07:17:00,37.1,34.7,30.25,SSW,202,0.0,9.0,91,0.00,,,0.00,Wunderground v.1.15,2013-05-13 11:17:00,
2013-05-13 07:18:00,37.2,34.8,30.25,SSW,202,0.0,9.0,91,0.00,,,0.00,Wunderground v.1.15,2013-05-13 11:18:00,
2013-05-13 07:19:00,37.2,34.8,30.25,SSW,202,0.0,9.0,91,0.00,,,0.00,Wunderground v.1.15,2013-05-13 11:19:00,
2013-05-13 07:22:00,37.3,34.9,30.25,SSW,202,0.0,9.0,91,0.00,,,0.00,Wunderground v.1.15,2013-05-13 11:22:00,
2013-05-13 07:25:00,37.3,34.9,30.25,SSW,202,0.0,9.0,91,0.00,,,0.00,Wunderground v.1.15,2013-05-13 11:25:00,
2013-05-13 07:26:00,37.3,34.9,30.25,SSW,202,0.0,9.0,91,0.00,,,0.00,Wunderground v.1.15,2013-05-13 11:26:00,
2013-05-13 07:29:00,37.4,35.0,30.25,SSW,202,0.0,9.0,91,0.00,,,0.00,Wunderground v.1.15,2013-05-13 11:29:00,
2013-05-13 07:30:00,37.4,35.0,30.25,SSW,202,0.0,9.0,91,0.00,,,0.00,Wunderground v.1.15,2013-05-13 11:30:00,
2013-05-13 07:33:00,37.5,35.1,30.25,SSW,202,0.0,9.0,91,0.00,,,0.00,Wunderground v.1.15,2013-05-13 11:33:00,
2013-05-13 07:38:00,37.8,35.4,30.26,SSW,202,0.0,9.0,91,0.00,,,0.00,Wunderground v.1.15,2013-05-13 11:38:00,
2013-05-13 07:39:00,37.9,35.5,30.25,SSW,202,0.0,9.0,91,0.00,,,0.00,Wunderground v.1.15,2013-05-13 11:39:00,
2013-05-13 07:40:00,38.0,35.9,30.26,SSW,202,0.0,9.0,92,0.00,,,0.00,Wunderground v.1.15,2013-05-13 11:40:00,
2013-05-13 07:41:00,38.1,36.0,30.26,SSW,202,0.0,9.0,92,0.00,,,0.00,Wunderground v.1.15,2013-05-13 11:41:00,
2013-05-13 07:44:00,38.4,36.0,30.26,SSW,202,0.0,9.0,91,0.00,,,0.00,Wunderground v.1.15,2013-05-13 11:44:00,
2013-05-13 07:46:00,38.6,36.2,30.26,SSW,202,0.0,9.0,91,0.00,,,0.00,Wunderground v.1.15,2013-05-13 11:46:00,
2013-05-13 07:47:00,38.7,36.3,30.26,SSW,202,0.0,9.0,91,0.00,,,0.00,Wunderground v.1.15,2013-05-13 11:47:00,
2013-05-13 07:48:00,38.8,36.4,30.26,SSW,202,0.0,9.0,91,0.00,,,0.00,Wunderground v.1.15,2013-05-13 11:48:00,
2013-05-13 07:49:00,38.9,36.5,30.26,SSW,202,0.0,9.0,91,0.00,,,0.00,Wunderground v.1.15,2013-05-13 11:49:00,
2013-05-13 07:50:00,38.9,36.5,30.26,SSW,202,0.0,9.0,91,0.00,,,0.00,Wunderground v.1.15,2013-05-13 11:50:00,
2013-05-13 07:53:00,39.1,36.4,30.26,SSW,202,0.0,9.0,90,0.00,,,0.00,Wunderground v.1.15,2013-05-13 11:53:00,
2013-05-13 07:56:00,39.3,36.6,30.26,SSW,202,0.0,9.0,90,0.00,,,0.00,Wunderground v.1.15,2013-05-13 11:56:00,
2013-05-13 07:59:00,39.5,36.5,30.26,SSW,202,0.0,9.0,89,0.00,,,0.00,Wunderground v.1.15,2013-05-13 11:59:00,
2013-05-13 08:02:00,39.7,37.0,30.26,SSW,202,0.0,9.0,90,0.00,,,0.00,Wunderground v.1.15,2013-05-13 12:02:00,
2013-05-13 08:03:00,39.8,37.1,30.26,SSW,202,0.0,9.0,90,0.00,,,0.00,Wunderground v.1.15,2013-05-13 12:03:00,
2013-05-13 08:06:00,40.1,36.8,30.26,SSW,202,0.0,9.0,88,0.00,,,0.00,Wunderground v.1.15,2013-05-13 12:06:00,
2013-05-13 08:10:00,40.5,36.9,30.26,SSW,202,0.0,9.0,87,0.00,,,0.00,Wunderground v.1.15,2013-05-13 12:10:00,
2013-05-13 08:11:00,40.6,37.0,30.26,SSW,202,0.0,9.0,87,0.00,,,0.00,Wunderground v.1.15,2013-05-13 12:11:00,
2013-05-13 08:12:00,40.6,37.0,30.26,SSW,202,0.0,9.0,87,0.00,,,0.00,Wunderground v.1.15,2013-05-13 12:12:00,
2013-05-13 08:15:00,40.8,37.5,30.26,SSW,202,0.0,9.0,88,0.00,,,0.00,Wunderground v.1.15,2013-05-13 12:15:00,
2013-05-13 08:17:00,40.9,37.3,30.26,SSW,202,0.0,9.0,87,0.00,,,0.00,Wunderground v.1.15,2013-05-13 12:17:00,
2013-05-13 08:18:00,41.0,37.4,30.26,SSW,202,0.0,9.0,87,0.00,,,0.00,Wunderground v.1.15,2013-05-13 12:18:00,
2013-05-13 08:21:00,41.1,37.5,30.27,SSW,202,0.0,9.0,87,0.00,,,0.00,Wunderground v.1.15,2013-05-13 12:21:00,
2013-05-13 08:23:00,41.4,37.8,30.27,SSW,202,0.0,9.0,87,0.00,,,0.00,Wunderground v.1.15,2013-05-13 12:23:00,
2013-05-13 08:26:00,41.7,38.1,30.27,SSW,202,0.0,9.0,87,0.00,,,0.00,Wunderground v.1.15,2013-05-13 12:26:00,
2013-05-13 08:27:00,41.8,38.2,30.27,SSW,202,0.0,9.0,87,0.00,,,0.00,Wunderground v.1.15,2013-05-13 12:27:00,
2013-05-13 08:29:00,42.0,38.4,30.27,SSW,202,0.0,9.0,87,0.00,,,0.00,Wunderground v.1.15,2013-05-13 12:29:00,
2013-05-13 08:30:00,42.1,38.5,30.27,SSW,202,0.0,9.0,87,0.00,,,0.00,Wunderground v.1.15,2013-05-13 12:30:00,
2013-05-13 08:31:00,42.2,38.6,30.27,SSW,202,0.0,9.0,87,0.00,,,0.00,Wunderground v.1.15,2013-05-13 12:31:00,
2013-05-13 08:35:00,42.6,38.1,30.27,SSW,202,0.0,9.0,84,0.00,,,0.00,Wunderground v.1.15,2013-05-13 12:35:00,
2013-05-13 08:36:00,42.7,38.2,30.27,SSW,202,0.0,9.0,84,0.00,,,0.00,Wunderground v.1.15,2013-05-13 12:36:00,
2013-05-13 08:37:00,42.8,38.3,30.27,SSW,202,0.0,9.0,84,0.00,,,0.00,Wunderground v.1.15,2013-05-13 12:37:00,
2013-05-13 08:38:00,42.9,38.1,30.27,SSW,202,0.0,9.0,83,0.00,,,0.00,Wunderground v.1.15,2013-05-13 12:38:00,
2013-05-13 08:40:00,43.2,38.7,30.27,SSW,202,0.0,9.0,84,0.00,,,0.00,Wunderground v.1.15,2013-05-13 12:40:00,
2013-05-13 08:41:00,43.3,38.8,30.27,SSW,202,0.0,9.0,84,0.00,,,0.00,Wunderground v.1.15,2013-05-13 12:41:00,
2013-05-13 08:42:00,43.5,38.7,30.27,SW,215,0.0,9.0,83,0.00,,,0.00,Wunderground v.1.15,2013-05-13 12:42:00,
2013-05-13 08:44:00,43.7,38.6,30.27,WNW,302,0.0,9.0,82,0.00,,,0.00,Wunderground v.1.15,2013-05-13 12:44:00,
2013-05-13 08:47:00,44.1,38.6,30.27,WNW,293,0.0,9.0,81,0.00,,,0.00,Wunderground v.1.15,2013-05-13 12:47:00,
2013-05-13 08:48:00,44.2,39.1,30.27,WNW,293,0.0,9.0,82,0.00,,,0.00,Wunderground v.1.15,2013-05-13 12:48:00,
2013-05-13 08:50:00,44.6,39.4,30.27,WNW,293,0.0,9.0,82,0.00,,,0.00,Wunderground v.1.15,2013-05-13 12:50:00,
2013-05-13 08:53:00,45.0,38.9,30.28,West,269,0.0,9.0,79,0.00,,,0.00,Wunderground v.1.15,2013-05-13 12:53:00,
2013-05-13 08:54:00,45.1,38.6,30.27,West,280,0.0,9.0,78,0.00,,,0.00,Wunderground v.1.15,2013-05-13 12:54:00,
2013-05-13 08:57:00,45.5,39.0,30.28,WNW,303,0.0,9.0,78,0.00,,,0.00,Wunderground v.1.15,2013-05-13 12:57:00,
2013-05-13 08:58:00,45.7,39.2,30.28,NW,304,0.0,9.0,78,0.00,,,0.00,Wunderground v.1.15,2013-05-13 12:58:00,
2013-05-13 09:01:00,45.9,39.1,30.28,NNW,348,0.0,9.0,77,0.00,,,0.00,Wunderground v.1.15,2013-05-13 13:01:00,
2013-05-13 09:02:00,46.1,39.0,30.28,NNW,340,0.0,9.0,76,0.00,,,0.00,Wunderground v.1.15,2013-05-13 13:02:00,
2013-05-13 09:03:00,46.3,38.8,30.28,West,271,0.0,9.0,75,0.00,,,0.00,Wunderground v.1.15,2013-05-13 13:03:00,
2013-05-13 09:05:00,46.5,39.0,30.28,North,9,0.0,9.0,75,0.00,,,0.00,Wunderground v.1.15,2013-05-13 13:05:00,
2013-05-13 09:08:00,46.8,39.3,30.28,NNW,346,0.0,9.0,75,0.00,,,0.00,Wunderground v.1.15,2013-05-13 13:08:00,
2013-05-13 09:09:00,46.9,39.7,30.28,NNW,348,0.0,9.0,76,0.00,,,0.00,Wunderground v.1.15,2013-05-13 13:09:00,
2013-05-13 09:11:00,47.1,39.2,30.28,North,350,0.0,9.0,74,0.00,,,0.00,Wunderground v.1.15,2013-05-13 13:11:00,
2013-05-13 09:15:00,47.5,40.6,30.28,WSW,242,0.0,9.0,77,0.00,,,0.00,Wunderground v.1.15,2013-05-13 13:15:00,
2013-05-13 09:16:00,47.5,40.3,30.28,West,263,0.0,9.0,76,0.00,,,0.00,Wunderground v.1.15,2013-05-13 13:16:00,
2013-05-13 09:19:00,47.9,40.4,30.28,WNW,291,0.0,9.0,75,0.00,,,0.00,Wunderground v.1.15,2013-05-13 13:19:00,
2013-05-13 09:20:00,47.9,40.0,30.28,WNW,292,0.0,9.0,74,0.00,,,0.00,Wunderground v.1.15,2013-05-13 13:20:00,
2013-05-13 09:21:00,48.0,40.1,30.28,WNW,292,0.0,9.0,74,0.00,,,0.00,Wunderground v.1.15,2013-05-13 13:21:00,
2013-05-13 09:22:00,48.1,40.2,30.28,WNW,293,0.0,9.0,74,0.00,,,0.00,Wunderground v.1.15,2013-05-13 13:22:00,
2013-05-13 09:25:00,48.4,40.1,30.28,NNW,347,0.0,9.0,73,0.00,,,0.00,Wunderground v.1.15,2013-05-13 13:25:00,
2013-05-13 09:26:00,48.5,40.6,30.28,NNW,347,0.0,9.0,74,0.00,,,0.00,Wunderground v.1.15,2013-05-13 13:26:00,
2013-05-13 09:27:00,48.7,40.1,30.29,NE,41,0.0,9.0,72,0.00,,,0.00,Wunderground v.1.15,2013-05-13 13:27:00,
2013-05-13 09:29:00,48.9,39.9,30.28,NW,323,0.0,9.0,71,0.00,,,0.00,Wunderground v.1.15,2013-05-13 13:29:00,
2013-05-13 09:32:00,49.1,39.7,30.29,NE,36,0.0,9.0,70,0.00,,,0.00,Wunderground v.1.15,2013-05-13 13:32:00,
2013-05-13 09:33:00,49.3,39.6,30.29,WNW,293,0.0,9.0,69,0.00,,,0.00,Wunderground v.1.15,2013-05-13 13:33:00,
2013-05-13 09:37:00,49.8,40.0,30.29,WSW,240,0.0,9.0,69,0.00,,,0.00,Wunderground v.1.15,2013-05-13 13:37:00,
2013-05-13 09:38:00,50.0,40.2,30.29,WSW,250,0.0,9.0,69,0.00,,,0.00,Wunderground v.1.15,2013-05-13 13:38:00,
2013-05-13 09:40:00,50.2,40.4,30.29,NW,322,0.0,9.0,69,0.00,,,0.00,Wunderground v.1.15,2013-05-13 13:40:00,
2013-05-13 09:41:00,50.3,39.8,30.29,NW,310,0.0,9.0,67,0.00,,,0.00,Wunderground v.1.15,2013-05-13 13:41:00,
2013-05-13 09:44:00,50.6,39.7,30.29,WNW,300,0.0,9.0,66,0.00,,,0.00,Wunderground v.1.15,2013-05-13 13:44:00,
2013-05-13 09:45:00,50.6,39.7,30.29,North,9,0.0,9.0,66,0.00,,,0.00,Wunderground v.1.15,2013-05-13 13:45:00,
2013-05-13 09:46:00,50.7,39.7,30.29,NW,310,0.0,9.0,66,0.00,,,0.00,Wunderground v.1.15,2013-05-13 13:46:00,
2013-05-13 09:48:00,51.0,40.4,30.29,NNW,335,0.0,9.0,67,0.00,,,0.00,Wunderground v.1.15,2013-05-13 13:48:00,
2013-05-13 09:50:00,51.2,39.4,30.29,WNW,302,0.0,9.0,64,0.00,,,0.00,Wunderground v.1.15,2013-05-13 13:50:00,
2013-05-13 09:51:00,51.3,38.7,30.29,NNW,341,0.0,9.0,62,0.00,,,0.00,Wunderground v.1.15,2013-05-13 13:51:00,
2013-05-13 09:54:00,51.5,40.1,30.29,WNW,285,0.0,9.0,65,0.00,,,0.00,Wunderground v.1.15,2013-05-13 13:54:00,
2013-05-13 09:56:00,51.8,40.0,30.29,WSW,251,1.0,9.0,64,0.00,,,0.00,Wunderground v.1.15,2013-05-13 13:56:00,
2013-05-13 09:57:00,51.9,39.7,30.29,West,263,1.0,9.0,63,0.00,,,0.00,Wunderground v.1.15,2013-05-13 13:57:00,
2013-05-13 10:01:00,52.2,39.6,30.29,West,273,0.0,9.0,62,0.00,,,0.00,Wunderground v.1.15,2013-05-13 14:01:00,
2013-05-13 10:02:00,52.3,38.4,30.29,West,273,1.0,9.0,59,0.00,,,0.00,Wunderground v.1.15,2013-05-13 14:02:00,
2013-05-13 10:07:00,52.8,38.9,30.29,WNW,292,0.0,9.0,59,0.00,,,0.00,Wunderground v.1.15,2013-05-13 14:07:00,
2013-05-13 10:08:00,52.8,40.1,30.29,NNW,340,0.0,9.0,62,0.00,,,0.00,Wunderground v.1.15,2013-05-13 14:08:00,
2013-05-13 10:09:00,53.0,40.7,30.29,WNW,287,0.0,9.0,63,0.00,,,0.00,Wunderground v.1.15,2013-05-13 14:09:00,
2013-05-13 10:10:00,53.1,40.0,30.29,NW,313,0.0,9.0,61,0.00,,,0.00,Wunderground v.1.15,2013-05-13 14:10:00,
2013-05-13 10:15:00,53.3,38.0,30.29,North,355,1.0,9.0,56,0.00,,,0.00,Wunderground v.1.15,2013-05-13 14:15:00,
2013-05-13 10:18:00,53.6,38.7,30.29,West,263,1.0,9.0,57,0.00,,,0.00,Wunderground v.1.15,2013-05-13 14:18:00,
2013-05-13 10:19:00,53.6,38.7,30.29,South,191,1.0,9.0,57,0.00,,,0.00,Wunderground v.1.15,2013-05-13 14:19:00,
2013-05-13 10:20:00,53.7,39.3,30.29,WNW,286,1.0,9.0,58,0.00,,,0.00,Wunderground v.1.15,2013-05-13 14:20:00,
2013-05-13 10:21:00,53.8,38.0,30.29,NW,306,1.0,1.0,55,0.00,,,0.00,Wunderground v.1.15,2013-05-13 14:21:00,
2013-05-13 10:24:00,53.9,38.6,30.29,SW,223,1.0,9.0,56,0.00,,,0.00,Wunderground v.1.15,2013-05-13 14:24:00,
2013-05-13 10:25:00,54.0,39.5,30.29,WSW,238,1.0,9.0,58,0.00,,,0.00,Wunderground v.1.15,2013-05-13 14:25:00,
2013-05-13 10:28:00,54.1,39.2,30.29,NW,308,1.0,9.0,57,0.00,,,0.00,Wunderground v.1.15,2013-05-13 14:28:00,
2013-05-13 10:31:00,54.2,38.8,30.29,NW,304,1.0,9.0,56,0.00,,,0.00,Wunderground v.1.15,2013-05-13 14:31:00,
2013-05-13 10:33:00,54.3,36.5,30.29,NW,306,1.0,9.0,51,0.00,,,0.00,Wunderground v.1.15,2013-05-13 14:33:00,
2013-05-13 10:34:00,54.3,37.5,30.29,NW,312,1.0,9.0,53,0.00,,,0.00,Wunderground v.1.15,2013-05-13 14:34:00,
2013-05-13 10:36:00,54.4,38.1,30.29,NNW,329,1.0,9.0,54,0.00,,,0.00,Wunderground v.1.15,2013-05-13 14:36:00,
2013-05-13 10:37:00,54.5,37.2,30.29,WNW,296,1.0,9.0,52,0.00,,,0.00,Wunderground v.1.15,2013-05-13 14:37:00,
2013-05-13 10:38:00,54.6,38.3,30.29,NW,306,1.0,9.0,54,0.00,,,0.00,Wunderground v.1.15,2013-05-13 14:38:00,
2013-05-13 10:41:00,54.8,38.0,30.29,WSW,237,1.0,1.0,53,0.00,,,0.00,Wunderground v.1.15,2013-05-13 14:41:00,
2013-05-13 10:44:00,55.1,39.2,30.29,West,267,0.0,9.0,55,0.00,,,0.00,Wunderground v.1.15,2013-05-13 14:44:00,
2013-05-13 10:45:00,55.1,37.8,30.29,NNW,346,0.0,9.0,52,0.00,,,0.00,Wunderground v.1.15,2013-05-13 14:45:00,
2013-05-13 10:47:00,55.1,36.8,30.29,North,360,1.0,9.0,50,0.00,,,0.00,Wunderground v.1.15,2013-05-13 14:47:00,
2013-05-13 10:49:00,55.0,35.7,30.29,North,349,2.0,9.0,48,0.00,,,0.00,Wunderground v.1.15,2013-05-13 14:49:00,
2013-05-13 10:50:00,55.1,35.7,30.29,North,355,2.0,9.0,48,0.00,,,0.00,Wunderground v.1.15,2013-05-13 14:50:00,
2013-05-13 10:53:00,54.7,34.3,30.29,North,360,3.0,6.0,46,0.00,,,0.00,Wunderground v.1.15,2013-05-13 14:53:00,
2013-05-13 10:54:00,54.6,34.8,30.29,NE,34,4.0,9.0,47,0.00,,,0.00,Wunderground v.1.15,2013-05-13 14:54:00,
2013-05-13 10:55:00,54.5,35.2,30.29,NNW,330,4.0,9.0,48,0.00,,,0.00,Wunderground v.1.15,2013-05-13 14:55:00,
2013-05-13 10:57:00,54.4,34.0,30.29,NE,44,5.0,9.0,46,0.00,,,0.00,Wunderground v.1.15,2013-05-13 14:57:00,
2013-05-13 11:01:00,55.0,35.1,30.29,NW,306,5.0,5.0,47,0.00,,,0.00,Wunderground v.1.15,2013-05-13 15:01:00,
2013-05-13 11:02:00,55.1,36.8,30.29,NW,325,5.0,9.0,50,0.00,,,0.00,Wunderground v.1.15,2013-05-13 15:02:00,
2013-05-13 11:03:00,55.4,36.0,30.29,North,5,4.0,9.0,48,0.00,,,0.00,Wunderground v.1.15,2013-05-13 15:03:00,
2013-05-13 11:04:00,55.5,36.6,30.29,NNW,343,4.0,9.0,49,0.00,,,0.00,Wunderground v.1.15,2013-05-13 15:04:00,
2013-05-13 11:05:00,55.6,34.6,30.29,NNW,331,4.0,9.0,45,0.00,,,0.00,Wunderground v.1.15,2013-05-13 15:05:00,
2013-05-13 11:09:00,56.1,36.7,30.29,WNW,283,2.0,9.0,48,0.00,,,0.00,Wunderground v.1.15,2013-05-13 15:09:00,
2013-05-13 11:11:00,56.1,35.0,30.29,NW,306,2.0,2.0,45,0.00,,,0.00,Wunderground v.1.15,2013-05-13 15:11:00,
2013-05-13 11:12:00,56.1,33.3,30.30,NW,323,2.0,9.0,42,0.00,,,0.00,Wunderground v.1.15,2013-05-13 15:12:00,
2013-05-13 11:13:00,56.1,33.3,30.29,NW,313,2.0,9.0,42,0.00,,,0.00,Wunderground v.1.15,2013-05-13 15:13:00,
2013-05-13 11:18:00,55.8,33.0,30.29,WSW,240,3.0,9.0,42,0.00,,,0.00,Wunderground v.1.15,2013-05-13 15:18:00,
2013-05-13 11:19:00,55.8,32.4,30.29,WSW,242,3.0,9.0,41,0.00,,,0.00,Wunderground v.1.15,2013-05-13 15:19:00,
2013-05-13 11:21:00,55.9,34.3,30.29,NW,309,3.0,9.0,44,0.00,,,0.00,Wunderground v.1.15,2013-05-13 15:21:00,
2013-05-13 11:22:00,55.9,34.3,30.29,NW,316,2.0,9.0,44,0.00,,,0.00,Wunderground v.1.15,2013-05-13 15:22:00,
2013-05-13 11:24:00,56.0,34.4,30.29,SW,218,3.0,9.0,44,0.00,,,0.00,Wunderground v.1.15,2013-05-13 15:24:00,
2013-05-13 11:26:00,55.7,32.9,30.29,West,265,3.0,9.0,42,0.00,,,0.00,Wunderground v.1.15,2013-05-13 15:26:00,
2013-05-13 11:29:00,55.1,32.4,30.30,NNW,331,2.0,9.0,42,0.00,,,0.00,Wunderground v.1.15,2013-05-13 15:29:00,
2013-05-13 11:30:00,54.9,32.2,30.30,NW,311,3.0,9.0,42,0.00,,,0.00,Wunderground v.1.15,2013-05-13 15:30:00,
2013-05-13 11:31:00,54.8,32.1,30.30,West,275,3.0,9.0,42,0.00,,,0.00,Wunderground v.1.15,2013-05-13 15:31:00,
2013-05-13 11:34:00,55.0,32.3,30.30,East,86,2.0,9.0,42,0.00,,,0.00,Wunderground v.1.15,2013-05-13 15:34:00,
2013-05-13 11:37:00,55.7,34.1,30.30,ENE,61,1.0,9.0,44,0.00,,,0.00,Wunderground v.1.15,2013-05-13 15:37:00,
2013-05-13 11:38:00,56.0,33.8,30.29,NNE,20,1.0,9.0,43,0.00,,,0.00,Wunderground v.1.15,2013-05-13 15:38:00,
2013-05-13 11:39:00,56.2,34.6,30.30,NW,305,1.0,9.0,44,0.00,,,0.00,Wunderground v.1.15,2013-05-13 15:39:00,
2013-05-13 11:43:00,56.8,35.1,30.29,NW,306,1.0,9.0,44,0.00,,,0.00,Wunderground v.1.15,2013-05-13 15:43:00,
2013-05-13 11:44:00,56.9,35.2,30.30,NNW,344,1.0,9.0,44,0.00,,,0.00,Wunderground v.1.15,2013-05-13 15:44:00,
2013-05-13 11:47:00,57.4,35.6,30.30,NW,323,1.0,9.0,44,0.00,,,0.00,Wunderground v.1.15,2013-05-13 15:47:00,
2013-05-13 11:49:00,57.4,34.5,30.30,NW,321,2.0,9.0,42,0.00,,,0.00,Wunderground v.1.15,2013-05-13 15:49:00,
2013-05-13 11:52:00,57.3,32.5,30.30,North,350,2.0,9.0,39,0.00,,,0.00,Wunderground v.1.15,2013-05-13 15:52:00,
2013-05-13 11:54:00,57.3,34.4,30.30,WNW,301,2.0,9.0,42,0.00,,,0.00,Wunderground v.1.15,2013-05-13 15:54:00,
2013-05-13 11:55:00,57.4,35.1,30.30,NW,315,2.0,9.0,43,0.00,,,0.00,Wunderground v.1.15,2013-05-13 15:55:00,
2013-05-13 11:59:00,57.8,36.0,30.30,NNW,340,2.0,9.0,44,0.00,,,0.00,Wunderground v.1.15,2013-05-13 15:59:00,
2013-05-13 12:01:00,58.0,37.9,30.30,NNE,32,1.0,9.0,47,0.00,,,0.00,Wunderground v.1.15,2013-05-13 16:01:00,
2013-05-13 12:03:00,58.1,36.9,30.30,North,5,1.0,9.0,45,0.00,,,0.00,Wunderground v.1.15,2013-05-13 16:03:00,
2013-05-13 12:06:00,57.8,34.8,30.30,NNW,332,2.0,9.0,42,0.00,,,0.00,Wunderground v.1.15,2013-05-13 16:06:00,
2013-05-13 12:08:00,57.8,36.6,30.30,North,5,3.0,9.0,45,0.00,,,0.00,Wunderground v.1.15,2013-05-13 16:08:00,
2013-05-13 12:09:00,57.7,34.7,30.30,NW,321,3.0,9.0,42,0.00,,,0.00,Wunderground v.1.15,2013-05-13 16:09:00,
2013-05-13 12:10:00,57.5,34.0,30.30,NE,55,3.0,9.0,41,0.00,,,0.00,Wunderground v.1.15,2013-05-13 16:10:00,
2013-05-13 12:11:00,57.3,34.4,30.30,NW,313,4.0,4.0,42,0.00,,,0.00,Wunderground v.1.15,2013-05-13 16:11:00,
2013-05-13 12:17:00,57.6,35.2,30.29,NW,313,2.0,9.0,43,0.00,,,0.00,Wunderground v.1.15,2013-05-13 16:17:00,
2013-05-13 12:18:00,57.8,35.4,30.29,WNW,302,2.0,9.0,43,0.00,,,0.00,Wunderground v.1.15,2013-05-13 16:18:00,
2013-05-13 12:19:00,57.8,36.0,30.29,NNW,337,2.0,9.0,44,0.00,,,0.00,Wunderground v.1.15,2013-05-13 16:19:00,
2013-05-13 12:20:00,57.7,34.1,30.29,NW,310,2.0,9.0,41,0.00,,,0.00,Wunderground v.1.15,2013-05-13 16:20:00,
2013-05-13 12:23:00,57.6,35.2,30.29,West,266,2.0,9.0,43,0.00,,,0.00,Wunderground v.1.15,2013-05-13 16:23:00,
2013-05-13 12:26:00,57.8,35.4,30.29,NNE,17,2.0,9.0,43,0.00,,,0.00,Wunderground v.1.15,2013-05-13 16:26:00,
2013-05-13 12:27:00,57.8,33.6,30.29,NNE,14,2.0,9.0,40,0.00,,,0.00,Wunderground v.1.15,2013-05-13 16:27:00,
2013-05-13 12:28:00,57.8,37.1,30.29,NNE,15,3.0,9.0,46,0.00,,,0.00,Wunderground v.1.15,2013-05-13 16:28:00,
2013-05-13 12:32:00,58.3,38.7,30.29,NNW,332,3.0,9.0,48,0.00,,,0.00,Wunderground v.1.15,2013-05-13 16:32:00,
2013-05-13 12:34:00,58.4,34.2,30.29,NNE,28,3.0,9.0,40,0.00,,,0.00,Wunderground v.1.15,2013-05-13 16:34:00,
2013-05-13 12:35:00,58.5,33.6,30.29,NNE,14,4.0,9.0,39,0.00,,,0.00,Wunderground v.1.15,2013-05-13 16:35:00,
2013-05-13 12:38:00,58.2,34.0,30.29,NW,309,4.0,12.0,40,0.00,,,0.00,Wunderground v.1.15,2013-05-13 16:38:00,
2013-05-13 12:40:00,58.2,37.5,30.29,North,360,4.0,12.0,46,0.00,,,0.00,Wunderground v.1.15,2013-05-13 16:40:00,
2013-05-13 12:41:00,58.3,38.1,30.29,WNW,288,4.0,4.0,47,0.00,,,0.00,Wunderground v.1.15,2013-05-13 16:41:00,
2013-05-13 12:42:00,58.4,37.1,30.29,West,277,3.0,9.0,45,0.00,,,0.00,Wunderground v.1.15,2013-05-13 16:42:00,
2013-05-13 12:43:00,58.6,37.3,30.29,West,279,3.0,9.0,45,0.00,,,0.00,Wunderground v.1.15,2013-05-13 16:43:00,
2013-05-13 12:46:00,59.0,37.7,30.28,NE,52,2.0,9.0,45,0.00,,,0.00,Wunderground v.1.15,2013-05-13 16:46:00,
2013-05-13 12:47:00,59.1,34.1,30.28,NNW,331,2.0,9.0,39,0.00,,,0.00,Wunderground v.1.15,2013-05-13 16:47:00,
2013-05-13 12:52:00,59.1,37.2,30.28,WNW,292,1.0,9.0,44,0.00,,,0.00,Wunderground v.1.15,2013-05-13 16:52:00,
2013-05-13 12:53:00,59.1,37.8,30.28,WNW,300,2.0,9.0,45,0.00,,,0.00,Wunderground v.1.15,2013-05-13 16:53:00,
2013-05-13 12:57:00,58.9,38.7,30.28,NW,317,2.0,9.0,47,0.00,,,0.00,Wunderground v.1.15,2013-05-13 16:57:00,
2013-05-13 12:59:00,58.7,36.8,30.28,NNW,338,2.0,9.0,44,0.00,,,0.00,Wunderground v.1.15,2013-05-13 16:59:00,
2013-05-13 13:01:00,58.7,38.5,30.28,WNW,302,2.0,2.0,47,0.00,,,0.00,Wunderground v.1.15,2013-05-13 17:01:00,
2013-05-13 13:02:00,58.9,38.7,30.28,North,355,3.0,5.0,47,0.00,,,0.00,Wunderground v.1.15,2013-05-13 17:02:00,
2013-05-13 13:04:00,58.9,35.2,30.28,NW,322,3.0,9.0,41,0.00,,,0.00,Wunderground v.1.15,2013-05-13 17:04:00,
2013-05-13 13:07:00,59.0,34.7,30.28,NNE,32,3.0,13.0,40,0.00,,,0.00,Wunderground v.1.15,2013-05-13 17:07:00,
2013-05-13 13:08:00,59.0,36.5,30.28,North,355,4.0,13.0,43,0.00,,,0.00,Wunderground v.1.15,2013-05-13 17:08:00,
2013-05-13 13:10:00,59.1,36.6,30.28,NNW,338,4.0,13.0,43,0.00,,,0.00,Wunderground v.1.15,2013-05-13 17:10:00,
2013-05-13 13:11:00,59.1,36.0,30.28,NNW,331,5.0,5.0,42,0.00,,,0.00,Wunderground v.1.15,2013-05-13 17:11:00,
2013-05-13 13:15:00,59.8,37.8,30.28,ENE,59,4.0,9.0,44,0.00,,,0.00,Wunderground v.1.15,2013-05-13 17:15:00,
2013-05-13 13:16:00,59.9,35.5,30.28,NW,317,4.0,9.0,40,0.00,,,0.00,Wunderground v.1.15,2013-05-13 17:16:00,
2013-05-13 13:18:00,60.1,35.7,30.28,NE,50,2.0,9.0,40,0.00,,,0.00,Wunderground v.1.15,2013-05-13 17:18:00,
2013-05-13 13:20:00,60.2,37.6,30.28,WNW,287,2.0,9.0,43,0.00,,,0.00,Wunderground v.1.15,2013-05-13 17:20:00,
2013-05-13 13:22:00,60.0,35.0,30.28,NW,320,2.0,9.0,39,0.00,,,0.00,Wunderground v.1.15,2013-05-13 17:22:00,
2013-05-13 13:23:00,59.8,34.8,30.28,NW,305,2.0,9.0,39,0.00,,,0.00,Wunderground v.1.15,2013-05-13 17:23:00,
2013-05-13 13:26:00,58.9,36.4,30.28,North,5,2.0,9.0,43,0.00,,,0.00,Wunderground v.1.15,2013-05-13 17:26:00,
2013-05-13 13:27:00,58.7,37.4,30.28,NNW,329,2.0,9.0,45,0.00,,,0.00,Wunderground v.1.15,2013-05-13 17:27:00,
2013-05-13 13:29:00,57.9,34.3,30.28,North,355,3.0,9.0,41,0.00,,,0.00,Wunderground v.1.15,2013-05-13 17:29:00,
2013-05-13 13:30:00,57.8,37.1,30.28,NW,309,2.0,2.0,46,0.00,,,0.00,Wunderground v.1.15,2013-05-13 17:30:00,
2013-05-13 13:31:00,57.9,37.2,30.28,NW,316,2.0,9.0,46,0.00,,,0.00,Wunderground v.1.15,2013-05-13 17:31:00,
2013-05-13 13:33:00,58.1,36.9,30.27,NW,323,2.0,9.0,45,0.00,,,0.00,Wunderground v.1.15,2013-05-13 17:33:00,
2013-05-13 13:37:00,58.8,35.1,30.27,NNW,346,3.0,9.0,41,0.00,,,0.00,Wunderground v.1.15,2013-05-13 17:37:00,
2013-05-13 13:39:00,58.9,36.4,30.27,NW,304,3.0,9.0,43,0.00,,,0.00,Wunderground v.1.15,2013-05-13 17:39:00,
2013-05-13 13:40:00,58.9,35.2,30.27,WNW,287,3.0,9.0,41,0.00,,,0.00,Wunderground v.1.15,2013-05-13 17:40:00,
2013-05-13 13:42:00,59.1,35.4,30.27,NNW,330,4.0,9.0,41,0.00,,,0.00,Wunderground v.1.15,2013-05-13 17:42:00,
2013-05-13 13:43:00,59.2,36.7,30.27,SSW,206,5.0,9.0,43,0.00,,,0.00,Wunderground v.1.15,2013-05-13 17:43:00,
2013-05-13 13:45:00,59.5,35.8,30.27,NNE,16,5.0,13.0,41,0.00,,,0.00,Wunderground v.1.15,2013-05-13 17:45:00,
2013-05-13 13:47:00,59.6,36.5,30.27,North,355,5.0,13.0,42,0.00,,,0.00,Wunderground v.1.15,2013-05-13 17:47:00,
2013-05-13 13:49:00,59.5,38.1,30.27,NE,34,5.0,13.0,45,0.00,,,0.00,Wunderground v.1.15,2013-05-13 17:49:00,
2013-05-13 13:51:00,59.7,38.3,30.27,ENE,58,5.0,5.0,45,0.00,,,0.00,Wunderground v.1.15,2013-05-13 17:51:00,
2013-05-13 13:53:00,59.9,37.3,30.27,WNW,285,5.0,9.0,43,0.00,,,0.00,Wunderground v.1.15,2013-05-13 17:53:00,
2013-05-13 13:55:00,60.2,39.9,30.26,WNW,298,5.0,9.0,47,0.00,,,0.00,Wunderground v.1.15,2013-05-13 17:55:00,
2013-05-13 13:56:00,60.3,40.5,30.26,NW,326,4.0,9.0,48,0.00,,,0.00,Wunderground v.1.15,2013-05-13 17:56:00,
2013-05-13 13:57:00,60.4,38.4,30.26,NW,304,4.0,9.0,44,0.00,,,0.00,Wunderground v.1.15,2013-05-13 17:57:00,
2013-05-13 14:01:00,60.6,37.4,30.26,ENE,64,3.0,9.0,42,0.00,,,0.00,Wunderground v.1.15,2013-05-13 18:01:00,
2013-05-13 14:02:00,60.6,38.0,30.26,NNE,28,3.0,9.0,43,0.00,,,0.00,Wunderground v.1.15,2013-05-13 18:02:00,
2013-05-13 14:03:00,60.5,37.3,30.26,NNW,345,2.0,9.0,42,0.00,,,0.00,Wunderground v.1.15,2013-05-13 18:03:00,
2013-05-13 14:04:00,60.4,36.6,30.26,NW,313,3.0,9.0,41,0.00,,,0.00,Wunderground v.1.15,2013-05-13 18:04:00,
2013-05-13 14:07:00,60.4,37.8,30.26,NNW,341,2.0,9.0,43,0.00,,,0.00,Wunderground v.1.15,2013-05-13 18:07:00,
2013-05-13 14:08:00,60.4,35.9,30.26,NNW,339,3.0,9.0,40,0.00,,,0.00,Wunderground v.1.15,2013-05-13 18:08:00,
2013-05-13 14:09:00,60.5,36.7,30.26,North,349,3.0,9.0,41,0.00,,,0.00,Wunderground v.1.15,2013-05-13 18:09:00,
2013-05-13 14:14:00,60.7,38.1,30.26,North,355,4.0,9.0,43,0.00,,,0.00,Wunderground v.1.15,2013-05-13 18:14:00,
2013-05-13 14:16:00,60.8,35.7,30.26,North,355,4.0,9.0,39,0.00,,,0.00,Wunderground v.1.15,2013-05-13 18:16:00,
2013-05-13 14:18:00,61.0,37.1,30.26,ENE,70,4.0,9.0,41,0.00,,,0.00,Wunderground v.1.15,2013-05-13 18:18:00,
2013-05-13 14:19:00,61.0,37.1,30.26,North,11,4.0,9.0,41,0.00,,,0.00,Wunderground v.1.15,2013-05-13 18:19:00,
2013-05-13 14:21:00,61.0,38.9,30.26,NNW,339,3.0,3.0,44,0.00,,,0.00,Wunderground v.1.15,2013-05-13 18:21:00,
2013-05-13 14:22:00,61.2,40.2,30.26,NNW,336,3.0,9.0,46,0.00,,,0.00,Wunderground v.1.15,2013-05-13 18:22:00,
2013-05-13 14:24:00,61.4,38.1,30.26,NNW,327,3.0,9.0,42,0.00,,,0.00,Wunderground v.1.15,2013-05-13 18:24:00,
2013-05-13 14:25:00,61.4,36.2,30.26,West,266,3.0,9.0,39,0.00,,,0.00,Wunderground v.1.15,2013-05-13 18:25:00,
2013-05-13 14:26:00,61.3,35.5,30.26,NNW,332,4.0,9.0,38,0.00,,,0.00,Wunderground v.1.15,2013-05-13 18:26:00,
2013-05-13 14:27:00,61.2,36.0,30.26,North,9,4.0,13.0,39,0.00,,,0.00,Wunderground v.1.15,2013-05-13 18:27:00,
2013-05-13 14:28:00,61.1,36.6,30.26,NW,311,4.0,13.0,40,0.00,,,0.00,Wunderground v.1.15,2013-05-13 18:28:00,
2013-05-13 14:31:00,61.2,36.7,30.26,WSW,252,3.0,3.0,40,0.00,,,0.00,Wunderground v.1.15,2013-05-13 18:31:00,
2013-05-13 14:33:00,61.0,36.5,30.26,WSW,242,3.0,9.0,40,0.00,,,0.00,Wunderground v.1.15,2013-05-13 18:33:00,
2013-05-13 14:38:00,60.6,35.5,30.26,NW,315,3.0,9.0,39,0.00,,,0.00,Wunderground v.1.15,2013-05-13 18:38:00,
2013-05-13 14:39:00,60.5,36.0,30.26,WNW,285,3.0,9.0,40,0.00,,,0.00,Wunderground v.1.15,2013-05-13 18:39:00,
2013-05-13 14:42:00,60.3,34.6,30.26,NW,326,4.0,9.0,38,0.00,,,0.00,Wunderground v.1.15,2013-05-13 18:42:00,
2013-05-13 14:43:00,60.4,35.3,30.26,WNW,300,4.0,9.0,39,0.00,,,0.00,Wunderground v.1.15,2013-05-13 18:43:00,
2013-05-13 14:48:00,60.7,38.1,30.26,West,269,4.0,9.0,43,0.00,,,0.00,Wunderground v.1.15,2013-05-13 18:48:00,
2013-05-13 14:51:00,61.1,35.3,30.25,NNE,14,4.0,9.0,38,0.00,,,0.00,Wunderground v.1.15,2013-05-13 18:51:00,
2013-05-13 14:54:00,60.7,35.6,30.25,WNW,302,4.0,9.0,39,0.00,,,0.00,Wunderground v.1.15,2013-05-13 18:54:00,
2013-05-13 14:55:00,60.5,34.1,30.25,NNW,329,4.0,9.0,37,0.00,,,0.00,Wunderground v.1.15,2013-05-13 18:55:00,
2013-05-13 14:57:00,60.5,34.7,30.25,WSW,250,5.0,9.0,38,0.00,,,0.00,Wunderground v.1.15,2013-05-13 18:57:00,
2013-05-13 14:59:00,60.7,35.6,30.25,North,355,4.0,9.0,39,0.00,,,0.00,Wunderground v.1.15,2013-05-13 18:59:00,
2013-05-13 15:01:00,60.8,36.9,30.25,WSW,253,4.0,9.0,41,0.00,,,0.00,Wunderground v.1.15,2013-05-13 19:01:00,
2013-05-13 15:02:00,61.2,37.9,30.25,NNW,342,4.0,9.0,42,0.00,,,0.00,Wunderground v.1.15,2013-05-13 19:02:00,
2013-05-13 15:05:00,61.8,37.2,30.25,North,5,3.0,9.0,40,0.00,,,0.00,Wunderground v.1.15,2013-05-13 19:05:00,
2013-05-13 15:06:00,62.0,38.0,30.25,NNW,335,3.0,9.0,41,0.00,,,0.00,Wunderground v.1.15,2013-05-13 19:06:00,
2013-05-13 15:08:00,62.3,37.0,30.25,North,355,3.0,9.0,39,0.00,,,0.00,Wunderground v.1.15,2013-05-13 19:08:00,
2013-05-13 15:13:00,61.8,37.2,30.25,North,355,5.0,9.0,40,0.00,,,0.00,Wunderground v.1.15,2013-05-13 19:13:00,
2013-05-13 15:14:00,61.5,33.6,30.25,NNW,341,6.0,9.0,35,0.00,,,0.00,Wunderground v.1.15,2013-05-13 19:14:00,
2013-05-13 15:15:00,61.4,33.5,30.25,North,5,6.0,9.0,35,0.00,,,0.00,Wunderground v.1.15,2013-05-13 19:15:00,
2013-05-13 15:19:00,61.0,35.2,30.25,NE,36,7.0,12.0,38,0.00,,,0.00,Wunderground v.1.15,2013-05-13 19:19:00,
2013-05-13 15:20:00,60.8,35.0,30.25,NNW,337,6.0,12.0,38,0.00,,,0.00,Wunderground v.1.15,2013-05-13 19:20:00,
2013-05-13 15:26:00,61.0,35.8,30.25,NW,317,4.0,9.0,39,0.00,,,0.00,Wunderground v.1.15,2013-05-13 19:26:00,
2013-05-13 15:27:00,60.9,35.1,30.25,NNW,344,4.0,9.0,38,0.00,,,0.00,Wunderground v.1.15,2013-05-13 19:27:00,
2013-05-13 15:31:00,60.2,36.4,30.25,NW,313,4.0,4.0,41,0.00,,,0.00,Wunderground v.1.15,2013-05-13 19:31:00,
2013-05-13 15:32:00,60.3,35.9,30.25,NW,315,4.0,9.0,40,0.00,,,0.00,Wunderground v.1.15,2013-05-13 19:32:00,
2013-05-13 15:35:00,60.8,36.9,30.25,North,355,4.0,9.0,41,0.00,,,0.00,Wunderground v.1.15,2013-05-13 19:35:00,
2013-05-13 15:38:00,61.0,37.7,30.25,NNE,24,2.0,9.0,42,0.00,,,0.00,Wunderground v.1.15,2013-05-13 19:38:00,
2013-05-13 15:41:00,60.9,37.6,30.25,North,9,2.0,10.0,42,0.00,,,0.00,Wunderground v.1.15,2013-05-13 19:41:00,
2013-05-13 15:43:00,61.1,35.9,30.25,NE,37,3.0,10.0,39,0.00,,,0.00,Wunderground v.1.15,2013-05-13 19:43:00,
2013-05-13 15:44:00,61.2,36.0,30.25,NW,319,3.0,10.0,39,0.00,,,0.00,Wunderground v.1.15,2013-05-13 19:44:00,
2013-05-13 15:47:00,62.1,38.1,30.25,NW,323,3.0,10.0,41,0.00,,,0.00,Wunderground v.1.15,2013-05-13 19:47:00,
2013-05-13 15:48:00,62.2,37.6,30.25,NW,307,4.0,10.0,40,0.00,,,0.00,Wunderground v.1.15,2013-05-13 19:48:00,
2013-05-13 15:49:00,62.2,37.6,30.25,NNW,338,4.0,13.0,40,0.00,,,0.00,Wunderground v.1.15,2013-05-13 19:49:00,
2013-05-13 15:50:00,62.1,36.2,30.25,NW,317,4.0,13.0,38,0.00,,,0.00,Wunderground v.1.15,2013-05-13 19:50:00,
2013-05-13 15:53:00,62.0,35.4,30.24,North,11,5.0,9.0,37,0.00,,,0.00,Wunderground v.1.15,2013-05-13 19:53:00,
2013-05-13 15:56:00,62.2,36.9,30.24,WNW,291,5.0,9.0,39,0.00,,,0.00,Wunderground v.1.15,2013-05-13 19:56:00,
2013-05-13 15:57:00,62.3,38.3,30.25,NW,317,5.0,9.0,41,0.00,,,0.00,Wunderground v.1.15,2013-05-13 19:57:00,
2013-05-13 16:01:00,62.2,34.9,30.24,NW,321,4.0,4.0,36,0.00,,,0.00,Wunderground v.1.15,2013-05-13 20:01:00,
2013-05-13 16:02:00,62.0,35.4,30.24,North,350,4.0,9.0,37,0.00,,,0.00,Wunderground v.1.15,2013-05-13 20:02:00,
2013-05-13 16:04:00,61.6,36.4,30.24,NW,325,4.0,9.0,39,0.00,,,0.00,Wunderground v.1.15,2013-05-13 20:04:00,
2013-05-13 16:06:00,61.6,37.7,30.24,NW,321,4.0,9.0,41,0.00,,,0.00,Wunderground v.1.15,2013-05-13 20:06:00,
2013-05-13 16:09:00,61.7,37.1,30.24,WNW,301,3.0,9.0,40,0.00,,,0.00,Wunderground v.1.15,2013-05-13 20:09:00,
2013-05-13 16:11:00,61.6,37.0,30.24,NNE,26,3.0,3.0,40,0.00,,,0.00,Wunderground v.1.15,2013-05-13 20:11:00,
2013-05-13 16:12:00,61.5,36.3,30.24,NNW,340,3.0,9.0,39,0.00,,,0.00,Wunderground v.1.15,2013-05-13 20:12:00,
2013-05-13 16:14:00,61.4,36.2,30.24,NNW,333,3.0,9.0,39,0.00,,,0.00,Wunderground v.1.15,2013-05-13 20:14:00,
2013-05-13 16:15:00,61.2,36.7,30.24,NW,314,3.0,9.0,40,0.00,,,0.00,Wunderground v.1.15,2013-05-13 20:15:00,
2013-05-13 16:16:00,61.1,35.3,30.24,NNW,336,3.0,9.0,38,0.00,,,0.00,Wunderground v.1.15,2013-05-13 20:16:00,
2013-05-13 16:17:00,61.1,35.9,30.24,NW,319,2.0,9.0,39,0.00,,,0.00,Wunderground v.1.15,2013-05-13 20:17:00,
2013-05-13 16:18:00,61.2,37.3,30.24,NNE,15,2.0,9.0,41,0.00,,,0.00,Wunderground v.1.15,2013-05-13 20:18:00,
2013-05-13 16:19:00,61.3,38.0,30.24,North,349,2.0,9.0,42,0.00,,,0.00,Wunderground v.1.15,2013-05-13 20:19:00,
2013-05-13 16:21:00,61.6,38.3,30.24,NW,325,2.0,9.0,42,0.00,,,0.00,Wunderground v.1.15,2013-05-13 20:21:00,
2013-05-13 16:22:00,61.6,38.9,30.24,ENE,70,2.0,9.0,43,0.00,,,0.00,Wunderground v.1.15,2013-05-13 20:22:00,
2013-05-13 16:24:00,61.7,36.5,30.24,NNW,338,2.0,9.0,39,0.00,,,0.00,Wunderground v.1.15,2013-05-13 20:24:00,
2013-05-13 16:26:00,61.4,36.8,30.24,NNW,327,3.0,9.0,40,0.00,,,0.00,Wunderground v.1.15,2013-05-13 20:26:00,
2013-05-13 16:27:00,61.1,35.9,30.24,NW,311,3.0,9.0,39,0.00,,,0.00,Wunderground v.1.15,2013-05-13 20:27:00,
2013-05-13 16:28:00,60.9,35.8,30.24,NW,310,3.0,9.0,39,0.00,,,0.00,Wunderground v.1.15,2013-05-13 20:28:00,
2013-05-13 16:33:00,60.3,35.9,30.24,NNW,333,3.0,9.0,40,0.00,,,0.00,Wunderground v.1.15,2013-05-13 20:33:00,
2013-05-13 16:35:00,60.7,38.1,30.24,SW,236,2.0,9.0,43,0.00,,,0.00,Wunderground v.1.15,2013-05-13 20:35:00,
2013-05-13 16:36:00,60.9,37.0,30.24,NNE,16,2.0,9.0,41,0.00,,,0.00,Wunderground v.1.15,2013-05-13 20:36:00,
2013-05-13 16:39:00,61.6,37.7,30.24,WNW,289,1.0,9.0,41,0.00,,,0.00,Wunderground v.1.15,2013-05-13 20:39:00,
2013-05-13 16:41:00,62.0,38.6,30.24,North,350,1.0,9.0,42,0.00,,,0.00,Wunderground v.1.15,2013-05-13 20:41:00,
2013-05-13 16:43:00,62.0,37.4,30.23,WNW,300,1.0,9.0,40,0.00,,,0.00,Wunderground v.1.15,2013-05-13 20:43:00,
2013-05-13 16:44:00,62.0,38.0,30.24,North,5,1.0,9.0,41,0.00,,,0.00,Wunderground v.1.15,2013-05-13 20:44:00,
2013-05-13 16:45:00,62.0,36.7,30.24,NW,323,1.0,9.0,39,0.00,,,0.00,Wunderground v.1.15,2013-05-13 20:45:00,
2013-05-13 16:49:00,62.1,36.8,30.23,NNW,336,2.0,9.0,39,0.00,,,0.00,Wunderground v.1.15,2013-05-13 20:49:00,
2013-05-13 16:51:00,62.4,38.4,30.23,East,80,2.0,9.0,41,0.00,,,0.00,Wunderground v.1.15,2013-05-13 20:51:00,
2013-05-13 16:53:00,62.8,39.4,30.23,SW,218,2.0,9.0,42,0.00,,,0.00,Wunderground v.1.15,2013-05-13 20:53:00,
2013-05-13 16:55:00,62.9,36.9,30.23,NW,314,2.0,9.0,38,0.00,,,0.00,Wunderground v.1.15,2013-05-13 20:55:00,
2013-05-13 16:56:00,62.9,37.5,30.23,NW,305,2.0,9.0,39,0.00,,,0.00,Wunderground v.1.15,2013-05-13 20:56:00,
2013-05-13 16:57:00,62.9,36.2,30.23,NNW,327,2.0,9.0,37,0.00,,,0.00,Wunderground v.1.15,2013-05-13 20:57:00,
2013-05-13 16:58:00,62.9,36.9,30.23,North,360,2.0,9.0,38,0.00,,,0.00,Wunderground v.1.15,2013-05-13 20:58:00,
2013-05-13 17:03:00,62.4,35.1,30.23,NNW,342,4.0,9.0,36,0.00,,,0.00,Wunderground v.1.15,2013-05-13 21:03:00,
2013-05-13 17:04:00,62.2,34.9,30.23,NW,326,4.0,9.0,36,0.00,,,0.00,Wunderground v.1.15,2013-05-13 21:04:00,
2013-05-13 17:05:00,61.9,34.6,30.23,NNW,336,4.0,9.0,36,0.00,,,0.00,Wunderground v.1.15,2013-05-13 21:05:00,
2013-05-13 17:07:00,61.6,36.4,30.23,North,360,5.0,9.0,39,0.00,,,0.00,Wunderground v.1.15,2013-05-13 21:07:00,
2013-05-13 17:10:00,61.9,35.3,30.23,West,275,4.0,9.0,37,0.00,,,0.00,Wunderground v.1.15,2013-05-13 21:10:00,
2013-05-13 17:11:00,62.0,36.1,30.23,NW,314,4.0,4.0,38,0.00,,,0.00,Wunderground v.1.15,2013-05-13 21:11:00,
2013-05-13 17:15:00,62.5,35.2,30.22,North,360,3.0,9.0,36,0.00,,,0.00,Wunderground v.1.15,2013-05-13 21:15:00,
2013-05-13 17:17:00,62.5,35.2,30.22,NW,317,3.0,9.0,36,0.00,,,0.00,Wunderground v.1.15,2013-05-13 21:17:00,
2013-05-13 17:22:00,62.5,35.2,30.22,NNW,331,4.0,9.0,36,0.00,,,0.00,Wunderground v.1.15,2013-05-13 21:22:00,
2013-05-13 17:23:00,62.5,33.7,30.22,NNW,341,5.0,9.0,34,0.00,,,0.00,Wunderground v.1.15,2013-05-13 21:23:00,
2013-05-13 17:24:00,62.5,35.9,30.22,North,355,5.0,9.0,37,0.00,,,0.00,Wunderground v.1.15,2013-05-13 21:24:00,
2013-05-13 17:25:00,62.5,34.5,30.22,North,355,4.0,9.0,35,0.00,,,0.00,Wunderground v.1.15,2013-05-13 21:25:00,
2013-05-13 17:29:00,63.1,37.1,30.22,North,11,3.0,9.0,38,0.00,,,0.00,Wunderground v.1.15,2013-05-13 21:29:00,
2013-05-13 17:30:00,63.3,36.6,30.22,WSW,254,3.0,9.0,37,0.00,,,0.00,Wunderground v.1.15,2013-05-13 21:30:00,
2013-05-13 17:32:00,63.5,35.3,30.22,WNW,302,3.0,6.0,35,0.00,,,0.00,Wunderground v.1.15,2013-05-13 21:32:00,
2013-05-13 17:33:00,63.4,35.2,30.22,NW,305,3.0,9.0,35,0.00,,,0.00,Wunderground v.1.15,2013-05-13 21:33:00,
2013-05-13 17:36:00,62.9,34.1,30.22,North,355,3.0,9.0,34,0.00,,,0.00,Wunderground v.1.15,2013-05-13 21:36:00,
2013-05-13 17:37:00,62.8,34.7,30.22,NNW,327,4.0,9.0,35,0.00,,,0.00,Wunderground v.1.15,2013-05-13 21:37:00,
2013-05-13 17:39:00,62.6,35.3,30.22,NW,305,4.0,9.0,36,0.00,,,0.00,Wunderground v.1.15,2013-05-13 21:39:00,
2013-05-13 17:44:00,62.6,35.3,30.22,NNW,335,4.0,9.0,36,0.00,,,0.00,Wunderground v.1.15,2013-05-13 21:44:00,
2013-05-13 17:45:00,62.6,34.5,30.22,NNW,331,4.0,9.0,35,0.00,,,0.00,Wunderground v.1.15,2013-05-13 21:45:00,
2013-05-13 17:46:00,62.5,34.5,30.22,NW,323,4.0,9.0,35,0.00,,,0.00,Wunderground v.1.15,2013-05-13 21:46:00,
2013-05-13 17:47:00,62.4,35.1,30.22,NW,316,4.0,9.0,36,0.00,,,0.00,Wunderground v.1.15,2013-05-13 21:47:00,
2013-05-13 17:49:00,62.2,35.6,30.22,North,355,4.0,9.0,37,0.00,,,0.00,Wunderground v.1.15,2013-05-13 21:49:00,
2013-05-13 17:50:00,62.0,34.7,30.22,NW,322,4.0,9.0,36,0.00,,,0.00,Wunderground v.1.15,2013-05-13 21:50:00,
2013-05-13 17:51:00,62.0,35.4,30.22,NW,306,3.0,3.0,37,0.00,,,0.00,Wunderground v.1.15,2013-05-13 21:51:00,
2013-05-13 17:53:00,62.1,35.5,30.22,North,355,3.0,9.0,37,0.00,,,0.00,Wunderground v.1.15,2013-05-13 21:53:00,
2013-05-13 17:57:00,62.5,36.5,30.22,NNW,336,2.0,9.0,38,0.00,,,0.00,Wunderground v.1.15,2013-05-13 21:57:00,
2013-05-13 17:58:00,62.6,37.3,30.22,North,355,2.0,9.0,39,0.00,,,0.00,Wunderground v.1.15,2013-05-13 21:58:00,
2013-05-13 18:01:00,62.7,34.6,30.22,East,96,2.0,2.0,35,0.00,,,0.00,Wunderground v.1.15,2013-05-13 22:01:00,
2013-05-13 18:04:00,62.7,36.0,30.22,North,349,4.0,9.0,37,0.00,,,0.00,Wunderground v.1.15,2013-05-13 22:04:00,
2013-05-13 18:05:00,62.6,33.8,30.22,NNW,334,4.0,9.0,34,0.00,,,0.00,Wunderground v.1.15,2013-05-13 22:05:00,
2013-05-13 18:06:00,62.5,35.2,30.22,NW,316,4.0,9.0,36,0.00,,,0.00,Wunderground v.1.15,2013-05-13 22:06:00,
2013-05-13 18:07:00,62.5,36.5,30.22,NE,44,4.0,9.0,38,0.00,,,0.00,Wunderground v.1.15,2013-05-13 22:07:00,
2013-05-13 18:11:00,62.4,35.8,30.22,NW,325,5.0,5.0,37,0.00,,,0.00,Wunderground v.1.15,2013-05-13 22:11:00,
2013-05-13 18:12:00,62.2,34.2,30.22,NNW,337,5.0,10.0,35,0.00,,,0.00,Wunderground v.1.15,2013-05-13 22:12:00,
2013-05-13 18:13:00,62.0,34.7,30.22,North,351,4.0,10.0,36,0.00,,,0.00,Wunderground v.1.15,2013-05-13 22:13:00,
2013-05-13 18:16:00,62.0,35.4,30.22,NW,318,4.0,10.0,37,0.00,,,0.00,Wunderground v.1.15,2013-05-13 22:16:00,
2013-05-13 18:18:00,62.2,34.9,30.21,North,355,3.0,10.0,36,0.00,,,0.00,Wunderground v.1.15,2013-05-13 22:18:00,
2013-05-13 18:21:00,62.4,35.8,30.21,West,270,3.0,3.0,37,0.00,,,0.00,Wunderground v.1.15,2013-05-13 22:21:00,
2013-05-13 18:23:00,62.5,35.9,30.21,NW,326,2.0,9.0,37,0.00,,,0.00,Wunderground v.1.15,2013-05-13 22:23:00,
2013-05-13 18:24:00,62.5,35.9,30.21,NNW,327,2.0,9.0,37,0.00,,,0.00,Wunderground v.1.15,2013-05-13 22:24:00,
2013-05-13 18:25:00,62.6,36.6,30.21,NW,323,2.0,9.0,38,0.00,,,0.00,Wunderground v.1.15,2013-05-13 22:25:00,
2013-05-13 18:26:00,62.7,37.4,30.21,NNW,336,2.0,9.0,39,0.00,,,0.00,Wunderground v.1.15,2013-05-13 22:26:00,
2013-05-13 18:31:00,62.9,36.2,30.22,WNW,292,1.0,1.0,37,0.00,,,0.00,Wunderground v.1.15,2013-05-13 22:31:00,
2013-05-13 18:32:00,62.8,37.5,30.22,WNW,298,1.0,9.0,39,0.00,,,0.00,Wunderground v.1.15,2013-05-13 22:32:00,
2013-05-13 18:35:00,62.3,35.7,30.21,North,355,1.0,9.0,37,0.00,,,0.00,Wunderground v.1.15,2013-05-13 22:35:00,
2013-05-13 18:36:00,62.2,35.6,30.22,WNW,293,1.0,9.0,37,0.00,,,0.00,Wunderground v.1.15,2013-05-13 22:36:00,
2013-05-13 18:37:00,62.2,36.3,30.21,NW,305,1.0,9.0,38,0.00,,,0.00,Wunderground v.1.15,2013-05-13 22:37:00,
2013-05-13 18:40:00,62.3,38.3,30.21,NE,55,0.0,9.0,41,0.00,,,0.00,Wunderground v.1.15,2013-05-13 22:40:00,
2013-05-13 18:41:00,62.4,36.4,30.21,North,360,1.0,9.0,38,0.00,,,0.00,Wunderground v.1.15,2013-05-13 22:41:00,
2013-05-13 18:43:00,62.4,36.4,30.21,NW,308,1.0,9.0,38,0.00,,,0.00,Wunderground v.1.15,2013-05-13 22:43:00,
2013-05-13 18:46:00,62.4,35.1,30.21,NNW,327,1.0,9.0,36,0.00,,,0.00,Wunderground v.1.15,2013-05-13 22:46:00,
2013-05-13 18:47:00,62.4,35.1,30.21,NW,305,2.0,9.0,36,0.00,,,0.00,Wunderground v.1.15,2013-05-13 22:47:00,
2013-05-13 18:49:00,62.3,36.4,30.21,NNW,334,2.0,9.0,38,0.00,,,0.00,Wunderground v.1.15,2013-05-13 22:49:00,
2013-05-13 18:53:00,62.4,35.8,30.21,NNW,343,1.0,9.0,37,0.00,,,0.00,Wunderground v.1.15,2013-05-13 22:53:00,
2013-05-13 18:54:00,62.4,35.8,30.21,NNW,333,1.0,9.0,37,0.00,,,0.00,Wunderground v.1.15,2013-05-13 22:54:00,
2013-05-13 18:55:00,62.4,36.4,30.21,North,5,1.0,9.0,38,0.00,,,0.00,Wunderground v.1.15,2013-05-13 22:55:00,
2013-05-13 18:57:00,62.3,35.7,30.21,NW,311,1.0,9.0,37,0.00,,,0.00,Wunderground v.1.15,2013-05-13 22:57:00,
2013-05-13 18:58:00,62.3,35.7,30.21,NNW,339,1.0,9.0,37,0.00,,,0.00,Wunderground v.1.15,2013-05-13 22:58:00,
2013-05-13 18:59:00,62.3,35.7,30.21,ENE,60,1.0,9.0,37,0.00,,,0.00,Wunderground v.1.15,2013-05-13 22:59:00,
2013-05-13 19:02:00,62.2,36.3,30.21,NNW,341,2.0,5.0,38,0.00,,,0.00,Wunderground v.1.15,2013-05-13 23:02:00,
2013-05-13 19:04:00,62.0,35.4,30.21,North,9,2.0,9.0,37,0.00,,,0.00,Wunderground v.1.15,2013-05-13 23:04:00,
2013-05-13 19:05:00,62.1,35.5,30.21,NNW,335,2.0,9.0,37,0.00,,,0.00,Wunderground v.1.15,2013-05-13 23:05:00,
2013-05-13 19:06:00,62.0,34.7,30.21,WNW,301,2.0,9.0,36,0.00,,,0.00,Wunderground v.1.15,2013-05-13 23:06:00,
2013-05-13 19:09:00,61.9,34.6,30.21,NNW,345,2.0,9.0,36,0.00,,,0.00,Wunderground v.1.15,2013-05-13 23:09:00,
2013-05-13 19:11:00,61.9,36.0,30.21,NW,325,2.0,2.0,38,0.00,,,0.00,Wunderground v.1.15,2013-05-13 23:11:00,
2013-05-13 19:12:00,62.0,37.4,30.21,NW,319,1.0,9.0,40,0.00,,,0.00,Wunderground v.1.15,2013-05-13 23:12:00,
2013-05-13 19:14:00,62.1,35.5,30.21,NNW,340,1.0,9.0,37,0.00,,,0.00,Wunderground v.1.15,2013-05-13 23:14:00,
2013-05-13 19:16:00,62.0,36.1,30.22,North,360,1.0,9.0,38,0.00,,,0.00,Wunderground v.1.15,2013-05-13 23:16:00,
2013-05-13 19:17:00,62.0,35.4,30.22,North,351,1.0,9.0,37,0.00,,,0.00,Wunderground v.1.15,2013-05-13 23:17:00,
2013-05-13 19:20:00,62.0,36.7,30.22,NNW,334,1.0,9.0,39,0.00,,,0.00,Wunderground v.1.15,2013-05-13 23:20:00,
2013-05-13 19:22:00,61.9,37.9,30.22,NNW,334,1.0,9.0,41,0.00,,,0.00,Wunderground v.1.15,2013-05-13 23:22:00,
2013-05-13 19:24:00,61.8,37.8,30.22,NW,313,1.0,9.0,41,0.00,,,0.00,Wunderground v.1.15,2013-05-13 23:24:00,
2013-05-13 19:25:00,61.7,36.5,30.22,NW,319,0.0,9.0,39,0.00,,,0.00,Wunderground v.1.15,2013-05-13 23:25:00,
2013-05-13 19:27:00,61.7,37.1,30.22,NNW,327,0.0,9.0,40,0.00,,,0.00,Wunderground v.1.15,2013-05-13 23:27:00,
2013-05-13 19:29:00,61.6,36.4,30.22,NNW,347,0.0,9.0,39,0.00,,,0.00,Wunderground v.1.15,2013-05-13 23:29:00,
2013-05-13 19:30:00,61.6,37.0,30.22,NNE,15,0.0,9.0,40,0.00,,,0.00,Wunderground v.1.15,2013-05-13 23:30:00,
2013-05-13 19:33:00,61.4,35.5,30.22,NNW,337,0.0,9.0,38,0.00,,,0.00,Wunderground v.1.15,2013-05-13 23:33:00,
2013-05-13 19:34:00,61.4,35.5,30.22,NW,318,0.0,9.0,38,0.00,,,0.00,Wunderground v.1.15,2013-05-13 23:34:00,
2013-05-13 19:35:00,61.4,35.5,30.22,NNW,330,0.0,9.0,38,0.00,,,0.00,Wunderground v.1.15,2013-05-13 23:35:00,
2013-05-13 19:38:00,61.4,35.5,30.22,NNW,344,0.0,9.0,38,0.00,,,0.00,Wunderground v.1.15,2013-05-13 23:38:00,
2013-05-13 19:41:00,61.4,36.2,30.22,North,355,0.0,9.0,39,0.00,,,0.00,Wunderground v.1.15,2013-05-13 23:41:00,
2013-05-13 19:42:00,61.4,36.2,30.22,NNW,341,0.0,9.0,39,0.00,,,0.00,Wunderground v.1.15,2013-05-13 23:42:00,
2013-05-13 19:43:00,61.4,36.2,30.22,NNW,341,0.0,9.0,39,0.00,,,0.00,Wunderground v.1.15,2013-05-13 23:43:00,
2013-05-13 19:47:00,61.4,36.8,30.22,NW,306,0.0,9.0,40,0.00,,,0.00,Wunderground v.1.15,2013-05-13 23:47:00,
2013-05-13 19:51:00,61.4,36.2,30.22,NNW,327,0.0,9.0,39,0.00,,,0.00,Wunderground v.1.15,2013-05-13 23:51:00,
2013-05-13 19:53:00,61.3,35.5,30.22,NNW,337,0.0,9.0,38,0.00,,,0.00,Wunderground v.1.15,2013-05-13 23:53:00,
2013-05-13 19:54:00,61.3,35.5,30.22,NNW,337,0.0,9.0,38,0.00,,,0.00,Wunderground v.1.15,2013-05-13 23:54:00,
2013-05-13 19:56:00,61.2,36.0,30.22,NNW,341,0.0,9.0,39,0.00,,,0.00,Wunderground v.1.15,2013-05-13 23:56:00,
2013-05-13 19:57:00,61.0,35.2,30.22,North,355,0.0,9.0,38,0.00,,,0.00,Wunderground v.1.15,2013-05-13 23:57:00,
2013-05-13 19:58:00,60.9,37.0,30.22,NNW,340,0.0,9.0,41,0.00,,,0.00,Wunderground v.1.15,2013-05-13 23:58:00,
2013-05-13 20:02:00,60.5,35.4,30.22,North,360,1.0,9.0,39,0.00,,,0.00,Wunderground v.1.15,2013-05-14 00:02:00,
2013-05-13 20:03:00,60.4,35.9,30.22,North,349,1.0,9.0,40,0.00,,,0.00,Wunderground v.1.15,2013-05-14 00:03:00,
2013-05-13 20:06:00,60.1,35.7,30.22,NNW,346,0.0,9.0,40,0.00,,,0.00,Wunderground v.1.15,2013-05-14 00:06:00,
2013-05-13 20:07:00,60.0,35.0,30.22,NW,323,0.0,9.0,39,0.00,,,0.00,Wunderground v.1.15,2013-05-14 00:07:00,
2013-05-13 20:09:00,59.8,35.4,30.22,NW,323,0.0,9.0,40,0.00,,,0.00,Wunderground v.1.15,2013-05-14 00:09:00,
2013-05-13 20:11:00,59.6,35.2,30.22,NNW,336,0.0,9.0,40,0.00,,,0.00,Wunderground v.1.15,2013-05-14 00:11:00,
2013-05-13 20:13:00,59.4,35.7,30.22,NNW,332,0.0,9.0,41,0.00,,,0.00,Wunderground v.1.15,2013-05-14 00:13:00,
2013-05-13 20:14:00,59.3,36.2,30.22,North,9,0.0,9.0,42,0.00,,,0.00,Wunderground v.1.15,2013-05-14 00:14:00,
2013-05-13 20:16:00,59.1,34.8,30.22,North,5,0.0,9.0,40,0.00,,,0.00,Wunderground v.1.15,2013-05-14 00:16:00,
2013-05-13 20:17:00,59.0,35.3,30.22,North,5,0.0,9.0,41,0.00,,,0.00,Wunderground v.1.15,2013-05-14 00:17:00,
2013-05-13 20:21:00,58.7,34.4,30.22,NE,51,0.0,9.0,40,0.00,,,0.00,Wunderground v.1.15,2013-05-14 00:21:00,
2013-05-13 20:23:00,58.6,35.0,30.22,NNW,327,0.0,9.0,41,0.00,,,0.00,Wunderground v.1.15,2013-05-14 00:23:00,
2013-05-13 20:26:00,58.4,34.8,30.22,NNW,343,0.0,9.0,41,0.00,,,0.00,Wunderground v.1.15,2013-05-14 00:26:00,
2013-05-13 20:28:00,58.2,35.2,30.22,NNW,329,0.0,9.0,42,0.00,,,0.00,Wunderground v.1.15,2013-05-14 00:28:00,
2013-05-13 20:29:00,58.2,35.2,30.22,NNW,329,0.0,9.0,42,0.00,,,0.00,Wunderground v.1.15,2013-05-14 00:29:00,
2013-05-13 20:33:00,58.0,34.4,30.22,NNW,340,0.0,9.0,41,0.00,,,0.00,Wunderground v.1.15,2013-05-14 00:33:00,
2013-05-13 20:34:00,58.0,35.0,30.23,NE,36,0.0,9.0,42,0.00,,,0.00,Wunderground v.1.15,2013-05-14 00:34:00,
2013-05-13 20:35:00,58.0,35.0,30.23,North,349,0.0,9.0,42,0.00,,,0.00,Wunderground v.1.15,2013-05-14 00:35:00,
2013-05-13 20:36:00,58.0,34.4,30.23,NNW,346,0.0,9.0,41,0.00,,,0.00,Wunderground v.1.15,2013-05-14 00:36:00,
2013-05-13 20:38:00,57.8,35.4,30.23,NNW,346,0.0,9.0,43,0.00,,,0.00,Wunderground v.1.15,2013-05-14 00:38:00,
2013-05-13 20:39:00,57.8,35.4,30.23,NNW,346,0.0,9.0,43,0.00,,,0.00,Wunderground v.1.15,2013-05-14 00:39:00,
2013-05-13 20:43:00,57.5,35.2,30.23,North,351,0.0,9.0,43,0.00,,,0.00,Wunderground v.1.15,2013-05-14 00:43:00,
2013-05-13 20:44:00,57.5,35.2,30.23,North,351,0.0,9.0,43,0.00,,,0.00,Wunderground v.1.15,2013-05-14 00:44:00,
2013-05-13 20:45:00,57.5,35.2,30.23,North,355,0.0,9.0,43,0.00,,,0.00,Wunderground v.1.15,2013-05-14 00:45:00,
2013-05-13 20:47:00,57.3,35.0,30.23,North,355,0.0,9.0,43,0.00,,,0.00,Wunderground v.1.15,2013-05-14 00:47:00,
2013-05-13 20:49:00,57.2,34.9,30.23,North,355,0.0,9.0,43,0.00,,,0.00,Wunderground v.1.15,2013-05-14 00:49:00,
2013-05-13 20:50:00,57.2,34.9,30.23,NW,324,0.0,9.0,43,0.00,,,0.00,Wunderground v.1.15,2013-05-14 00:50:00,
2013-05-13 20:52:00,57.1,34.8,30.23,NW,324,0.0,9.0,43,0.00,,,0.00,Wunderground v.1.15,2013-05-14 00:52:00,
2013-05-13 20:54:00,57.0,35.3,30.23,NW,324,0.0,9.0,44,0.00,,,0.00,Wunderground v.1.15,2013-05-14 00:54:00,
2013-05-13 20:56:00,56.9,35.2,30.23,NW,324,0.0,9.0,44,0.00,,,0.00,Wunderground v.1.15,2013-05-14 00:56:00,
2013-05-13 20:59:00,56.8,35.7,30.23,NW,324,0.0,9.0,45,0.00,,,0.00,Wunderground v.1.15,2013-05-14 00:59:00,
2013-05-13 21:01:00,56.7,35.6,30.23,NW,324,0.0,9.0,45,0.00,,,0.00,Wunderground v.1.15,2013-05-14 01:01:00,
2013-05-13 21:02:00,56.6,35.5,30.23,NW,324,0.0,9.0,45,0.00,,,0.00,Wunderground v.1.15,2013-05-14 01:02:00,
2013-05-13 21:07:00,56.3,35.8,30.24,NW,324,0.0,9.0,46,0.00,,,0.00,Wunderground v.1.15,2013-05-14 01:07:00,
2013-05-13 21:08:00,56.2,35.1,30.24,NW,324,0.0,9.0,45,0.00,,,0.00,Wunderground v.1.15,2013-05-14 01:08:00,
2013-05-13 21:09:00,56.2,35.1,30.24,NW,324,0.0,9.0,45,0.00,,,0.00,Wunderground v.1.15,2013-05-14 01:09:00,
2013-05-13 21:10:00,56.1,35.0,30.24,NW,324,0.0,9.0,45,0.00,,,0.00,Wunderground v.1.15,2013-05-14 01:10:00,
2013-05-13 21:13:00,56.0,34.9,30.24,NW,324,0.0,9.0,45,0.00,,,0.00,Wunderground v.1.15,2013-05-14 01:13:00,
2013-05-13 21:15:00,55.9,34.8,30.24,NW,324,0.0,9.0,45,0.00,,,0.00,Wunderground v.1.15,2013-05-14 01:15:00,
2013-05-13 21:17:00,55.9,34.8,30.24,NW,324,0.0,9.0,45,0.00,,,0.00,Wunderground v.1.15,2013-05-14 01:17:00,
2013-05-13 21:18:00,55.9,34.8,30.24,NW,324,0.0,9.0,45,0.00,,,0.00,Wunderground v.1.15,2013-05-14 01:18:00,
2013-05-13 21:19:00,55.9,34.8,30.24,NW,324,0.0,9.0,45,0.00,,,0.00,Wunderground v.1.15,2013-05-14 01:19:00,
2013-05-13 21:20:00,55.8,34.8,30.24,NW,324,0.0,9.0,45,0.00,,,0.00,Wunderground v.1.15,2013-05-14 01:20:00,
2013-05-13 21:24:00,55.8,35.3,30.25,NW,324,0.0,9.0,46,0.00,,,0.00,Wunderground v.1.15,2013-05-14 01:24:00,
2013-05-13 21:26:00,55.7,34.7,30.25,NW,324,0.0,9.0,45,0.00,,,0.00,Wunderground v.1.15,2013-05-14 01:26:00,
2013-05-13 21:27:00,55.7,34.7,30.25,NW,324,0.0,9.0,45,0.00,,,0.00,Wunderground v.1.15,2013-05-14 01:27:00,
2013-05-13 21:30:00,55.6,34.6,30.25,NW,324,0.0,9.0,45,0.00,,,0.00,Wunderground v.1.15,2013-05-14 01:30:00,
2013-05-13 21:31:00,55.5,34.5,30.25,NW,324,0.0,9.0,45,0.00,,,0.00,Wunderground v.1.15,2013-05-14 01:31:00,
2013-05-13 21:32:00,55.5,35.0,30.25,NW,324,0.0,9.0,46,0.00,,,0.00,Wunderground v.1.15,2013-05-14 01:32:00,
2013-05-13 21:33:00,55.5,35.0,30.25,NW,324,0.0,9.0,46,0.00,,,0.00,Wunderground v.1.15,2013-05-14 01:33:00,
2013-05-13 21:35:00,55.4,34.4,30.25,NW,324,0.0,9.0,45,0.00,,,0.00,Wunderground v.1.15,2013-05-14 01:35:00,
2013-05-13 21:36:00,55.4,34.4,30.25,NW,324,0.0,9.0,45,0.00,,,0.00,Wunderground v.1.15,2013-05-14 01:36:00,
2013-05-13 21:37:00,55.4,34.9,30.25,NW,324,0.0,9.0,46,0.00,,,0.00,Wunderground v.1.15,2013-05-14 01:37:00,
2013-05-13 21:39:00,55.3,34.3,30.25,NW,324,0.0,9.0,45,0.00,,,0.00,Wunderground v.1.15,2013-05-14 01:39:00,
2013-05-13 21:41:00,55.3,34.9,30.25,NW,324,0.0,9.0,46,0.00,,,0.00,Wunderground v.1.15,2013-05-14 01:41:00,
2013-05-13 21:42:00,55.3,34.9,30.25,NW,324,0.0,9.0,46,0.00,,,0.00,Wunderground v.1.15,2013-05-14 01:42:00,
2013-05-13 21:46:00,55.3,34.3,30.25,NW,324,0.0,9.0,45,0.00,,,0.00,Wunderground v.1.15,2013-05-14 01:46:00,
2013-05-13 21:48:00,55.4,34.4,30.25,NW,324,0.0,9.0,45,0.00,,,0.00,Wunderground v.1.15,2013-05-14 01:48:00,
2013-05-13 21:50:00,55.4,34.9,30.25,NW,324,0.0,9.0,46,0.00,,,0.00,Wunderground v.1.15,2013-05-14 01:50:00,
2013-05-13 21:53:00,55.3,34.9,30.25,NW,324,0.0,9.0,46,0.00,,,0.00,Wunderground v.1.15,2013-05-14 01:53:00,
2013-05-13 21:55:00,55.3,34.9,30.25,NW,324,0.0,9.0,46,0.00,,,0.00,Wunderground v.1.15,2013-05-14 01:55:00,
2013-05-13 21:56:00,55.2,34.8,30.25,NW,324,0.0,9.0,46,0.00,,,0.00,Wunderground v.1.15,2013-05-14 01:56:00,
2013-05-13 21:58:00,55.1,34.7,30.25,NW,324,0.0,9.0,46,0.00,,,0.00,Wunderground v.1.15,2013-05-14 01:58:00,
2013-05-13 22:01:00,54.9,35.0,30.26,NW,324,0.0,9.0,47,0.00,,,0.00,Wunderground v.1.15,2013-05-14 02:01:00,
2013-05-13 22:02:00,54.8,34.9,30.26,NW,324,0.0,9.0,47,0.00,,,0.00,Wunderground v.1.15,2013-05-14 02:02:00,
2013-05-13 22:05:00,54.6,34.8,30.25,NW,324,0.0,9.0,47,0.00,,,0.00,Wunderground v.1.15,2013-05-14 02:05:00,
2013-05-13 22:08:00,54.5,34.7,30.26,NW,324,0.0,9.0,47,0.00,,,0.00,Wunderground v.1.15,2013-05-14 02:08:00,
2013-05-13 22:09:00,54.4,34.6,30.26,NW,324,0.0,9.0,47,0.00,,,0.00,Wunderground v.1.15,2013-05-14 02:09:00,
2013-05-13 22:10:00,54.4,34.6,30.26,NW,324,0.0,9.0,47,0.00,,,0.00,Wunderground v.1.15,2013-05-14 02:10:00,
2013-05-13 22:13:00,54.4,34.6,30.26,NW,324,0.0,9.0,47,0.00,,,0.00,Wunderground v.1.15,2013-05-14 02:13:00,
2013-05-13 22:15:00,54.4,34.6,30.26,NW,324,0.0,9.0,47,0.00,,,0.00,Wunderground v.1.15,2013-05-14 02:15:00,
2013-05-13 22:18:00,54.3,34.5,30.26,NW,324,0.0,9.0,47,0.00,,,0.00,Wunderground v.1.15,2013-05-14 02:18:00,
2013-05-13 22:19:00,54.3,34.5,30.26,NW,324,0.0,9.0,47,0.00,,,0.00,Wunderground v.1.15,2013-05-14 02:19:00,
2013-05-13 22:20:00,54.2,34.4,30.26,NW,324,0.0,9.0,47,0.00,,,0.00,Wunderground v.1.15,2013-05-14 02:20:00,
2013-05-13 22:21:00,54.2,34.4,30.26,NW,324,0.0,9.0,47,0.00,,,0.00,Wunderground v.1.15,2013-05-14 02:21:00,
2013-05-13 22:24:00,54.1,34.3,30.26,NW,324,0.0,9.0,47,0.00,,,0.00,Wunderground v.1.15,2013-05-14 02:24:00,
2013-05-13 22:25:00,54.1,34.3,30.26,NW,324,0.0,9.0,47,0.00,,,0.00,Wunderground v.1.15,2013-05-14 02:25:00,
2013-05-13 22:26:00,54.0,34.2,30.26,NW,324,0.0,9.0,47,0.00,,,0.00,Wunderground v.1.15,2013-05-14 02:26:00,
2013-05-13 22:27:00,54.0,34.2,30.26,NW,324,0.0,9.0,47,0.00,,,0.00,Wunderground v.1.15,2013-05-14 02:27:00,
2013-05-13 22:28:00,54.0,34.2,30.26,NW,324,0.0,9.0,47,0.00,,,0.00,Wunderground v.1.15,2013-05-14 02:28:00,
2013-05-13 22:31:00,53.9,34.1,30.26,NW,324,0.0,9.0,47,0.00,,,0.00,Wunderground v.1.15,2013-05-14 02:31:00,
2013-05-13 22:33:00,53.9,34.1,30.26,NW,324,0.0,9.0,47,0.00,,,0.00,Wunderground v.1.15,2013-05-14 02:33:00,
2013-05-13 22:34:00,53.9,34.1,30.26,NW,324,0.0,9.0,47,0.00,,,0.00,Wunderground v.1.15,2013-05-14 02:34:00,
2013-05-13 22:35:00,53.8,34.0,30.26,NW,324,0.0,9.0,47,0.00,,,0.00,Wunderground v.1.15,2013-05-14 02:35:00,
2013-05-13 22:37:00,53.7,33.9,30.26,NW,324,0.0,9.0,47,0.00,,,0.00,Wunderground v.1.15,2013-05-14 02:37:00,
2013-05-13 22:39:00,53.7,34.5,30.26,NW,324,0.0,9.0,48,0.00,,,0.00,Wunderground v.1.15,2013-05-14 02:39:00,
2013-05-13 22:40:00,53.6,34.4,30.26,NW,324,0.0,9.0,48,0.00,,,0.00,Wunderground v.1.15,2013-05-14 02:40:00,
2013-05-13 22:43:00,53.4,38.5,30.26,East,87,0.0,9.0,57,0.00,,,0.00,Wunderground v.1.15,2013-05-14 02:43:00,
2013-05-13 22:44:00,53.3,38.9,30.26,East,86,0.0,9.0,58,0.00,,,0.00,Wunderground v.1.15,2013-05-14 02:44:00,
2013-05-13 22:47:00,52.5,37.7,30.26,NNE,17,0.0,9.0,57,0.00,,,0.00,Wunderground v.1.15,2013-05-14 02:47:00,
2013-05-13 22:48:00,52.1,35.9,30.26,NNE,17,0.0,9.0,54,0.00,,,0.00,Wunderground v.1.15,2013-05-14 02:48:00,
2013-05-13 22:49:00,52.0,35.9,30.26,NNE,17,0.0,9.0,54,0.00,,,0.00,Wunderground v.1.15,2013-05-14 02:49:00,
2013-05-13 22:53:00,51.7,35.1,30.26,NNE,17,0.0,9.0,53,0.00,,,0.00,Wunderground v.1.15,2013-05-14 02:53:00,
2013-05-13 22:55:00,51.8,35.2,30.27,NNE,17,0.0,9.0,53,0.00,,,0.00,Wunderground v.1.15,2013-05-14 02:55:00,
2013-05-13 22:56:00,51.9,34.8,30.26,NNE,17,0.0,9.0,52,0.00,,,0.00,Wunderground v.1.15,2013-05-14 02:56:00,
2013-05-13 22:58:00,52.0,34.9,30.26,NNE,17,0.0,9.0,52,0.00,,,0.00,Wunderground v.1.15,2013-05-14 02:58:00,
2013-05-13 23:01:00,52.1,34.5,30.26,NNE,17,0.0,9.0,51,0.00,,,0.00,Wunderground v.1.15,2013-05-14 03:01:00,
2013-05-13 23:02:00,52.2,34.6,30.26,NNE,17,0.0,9.0,51,0.00,,,0.00,Wunderground v.1.15,2013-05-14 03:02:00,
2013-05-13 23:03:00,52.2,34.6,30.26,NNE,17,0.0,9.0,51,0.00,,,0.00,Wunderground v.1.15,2013-05-14 03:03:00,
2013-05-13 23:07:00,52.4,34.8,30.26,NNE,17,0.0,9.0,51,0.00,,,0.00,Wunderground v.1.15,2013-05-14 03:07:00,
2013-05-13 23:08:00,52.4,35.8,30.26,NNE,17,0.0,9.0,53,0.00,,,0.00,Wunderground v.1.15,2013-05-14 03:08:00,
2013-05-13 23:12:00,52.5,34.9,30.26,NNE,17,0.0,9.0,51,0.00,,,0.00,Wunderground v.1.15,2013-05-14 03:12:00,
2013-05-13 23:13:00,52.6,35.0,30.26,NNE,17,0.0,9.0,51,0.00,,,0.00,Wunderground v.1.15,2013-05-14 03:13:00,
2013-05-13 23:14:00,52.6,35.0,30.26,NNE,17,0.0,9.0,51,0.00,,,0.00,Wunderground v.1.15,2013-05-14 03:14:00,
2013-05-13 23:16:00,52.6,34.5,30.26,NNE,17,0.0,9.0,50,0.00,,,0.00,Wunderground v.1.15,2013-05-14 03:16:00,
2013-05-13 23:19:00,52.7,34.6,30.26,NNE,17,0.0,9.0,50,0.00,,,0.00,Wunderground v.1.15,2013-05-14 03:19:00,
2013-05-13 23:21:00,52.6,35.0,30.26,NNE,17,0.0,9.0,51,0.00,,,0.00,Wunderground v.1.15,2013-05-14 03:21:00,
2013-05-13 23:22:00,52.6,35.0,30.26,NNE,17,0.0,9.0,51,0.00,,,0.00,Wunderground v.1.15,2013-05-14 03:22:00,
2013-05-13 23:24:00,52.6,35.5,30.26,NNE,17,0.0,9.0,52,0.00,,,0.00,Wunderground v.1.15,2013-05-14 03:24:00,
2013-05-13 23:27:00,52.4,34.8,30.26,NNE,17,0.0,9.0,51,0.00,,,0.00,Wunderground v.1.15,2013-05-14 03:27:00,
2013-05-13 23:28:00,52.4,34.8,30.26,NNE,17,0.0,9.0,51,0.00,,,0.00,Wunderground v.1.15,2013-05-14 03:28:00,
2013-05-13 23:30:00,52.4,35.3,30.26,NNE,17,0.0,9.0,52,0.00,,,0.00,Wunderground v.1.15,2013-05-14 03:30:00,
2013-05-13 23:31:00,52.3,34.7,30.26,NNE,17,0.0,9.0,51,0.00,,,0.00,Wunderground v.1.15,2013-05-14 03:31:00,
2013-05-13 23:32:00,52.3,34.7,30.26,NNE,17,0.0,9.0,51,0.00,,,0.00,Wunderground v.1.15,2013-05-14 03:32:00,
2013-05-13 23:36:00,52.2,35.6,30.26,NNE,17,0.0,9.0,53,0.00,,,0.00,Wunderground v.1.15,2013-05-14 03:36:00,
2013-05-13 23:37:00,52.1,36.4,30.26,NNE,17,0.0,9.0,55,0.00,,,0.00,Wunderground v.1.15,2013-05-14 03:37:00,
2013-05-13 23:40:00,51.9,35.3,30.26,NNE,17,0.0,9.0,53,0.00,,,0.00,Wunderground v.1.15,2013-05-14 03:40:00,
2013-05-13 23:41:00,51.9,34.8,30.26,NNE,17,0.0,9.0,52,0.00,,,0.00,Wunderground v.1.15,2013-05-14 03:41:00,
2013-05-13 23:42:00,51.8,34.7,30.26,NNE,17,0.0,9.0,52,0.00,,,0.00,Wunderground v.1.15,2013-05-14 03:42:00,
2013-05-13 23:46:00,51.7,36.0,30.26,NNE,17,0.0,9.0,55,0.00,,,0.00,Wunderground v.1.15,2013-05-14 03:46:00,
2013-05-13 23:47:00,51.6,35.0,30.26,NNE,17,0.0,9.0,53,0.00,,,0.00,Wunderground v.1.15,2013-05-14 03:47:00,
2013-05-13 23:49:00,51.5,34.4,30.26,NNE,17,0.0,9.0,52,0.00,,,0.00,Wunderground v.1.15,2013-05-14 03:49:00,
2013-05-13 23:51:00,51.5,34.9,30.26,NNE,17,0.0,9.0,53,0.00,,,0.00,Wunderground v.1.15,2013-05-14 03:51:00,
2013-05-13 23:53:00,51.5,34.9,30.26,NNE,17,0.0,9.0,53,0.00,,,0.00,Wunderground v.1.15,2013-05-14 03:53:00,
2013-05-13 23:55:00,51.5,34.9,30.26,NNE,17,0.0,9.0,53,0.00,,,0.00,Wunderground v.1.15,2013-05-14 03:55:00,
2013-05-13 23:58:00,51.5,34.9,30.26,SSW,199,0.0,9.0,53,0.00,,,0.00,Wunderground v.1.15,2013-05-14 03:58:00,